GFSFLT1_sfc_temp_003.txt.gz
Temp
75 75 75 74 73 73 73 72 73 74 73 73 73 72 72 71 64 65 70 67 75 75 74 74 74 73 73 73 72 72 72 72 72
75 74 74 74 72 72 72 72 72 72 72 72 72 71 70 65 61 64 65 67 75 75 74 73 73 73 73 73 72 72 71 71 71
75 74 74 73 73 72 72 72 72 72 72 72 71 70 69 67 61 64 64 71 75 74 73 73 73 72 72 72 72 71 71 71 70
74 74 73 73 73 72 72 72 72 72 72 71 71 70 69 62 61 67 64 73 75 74 73 72 72 72 71 71 71 71 71 70 70
72 71 72 72 72 72 71 72 72 72 72 71 70 69 68 60 61 63 63 74 75 74 73 72 72 72 71 71 71 70 71 70 70
68 68 69 71 71 71 71 72 72 71 70 70 69 68 60 57 60 61 70 74 75 74 73 72 72 72 72 71 71 71 71 71 71
69 66 69 70 70 70 71 71 71 68 60 59 66 60 58 57 59 62 70 74 75 74 73 72 72 72 72 71 71 71 71 72 72
63 61 63 62 64 62 65 63 61 59 57 57 57 58 56 56 59 65 70 73 75 75 74 73 73 72 72 72 72 72 72 72 72
59 61 60 59 60 60 59 58 58 58 58 57 57 57 57 57 59 60 68 72 74 75 75 74 73 73 73 73 73 72 72 72 72
60 60 59 60 60 60 58 59 59 59 58 60 59 59 58 59 59 57 65 69 72 74 75 74 74 74 74 74 73 73 73 73 72
61 61 62 61 62 61 60 60 61 59 59 60 60 60 60 60 60 58 58 67 69 72 74 75 75 75 75 75 74 73 73 73 73
63 63 62 63 62 61 60 59 59 58 60 59 61 62 61 62 61 60 58 60 66 69 74 75 75 75 75 76 75 74 74 73 73
63 64 64 63 62 62 60 61 60 58 59 58 59 60 59 60 61 62 63 61 64 65 69 71 73 74 75 75 76 75 74 73 73
66 66 65 61 61 62 63 60 61 60 60 60 60 60 60 61 65 62 62 62 63 62 65 66 68 70 72 74 75 75 74 73 73
65 66 65 61 62 62 58 62 58 62 62 64 64 61 63 62 62 64 65 64 62 61 62 62 63 66 69 72 73 74 74 73 73
64 66 63 61 63 64 63 62 60 61 56 56 59 58 59 60 63 64 63 64 63 62 62 61 61 63 65 68 70 72 73 73 73
65 66 66 64 64 64 62 62 62 62 58 59 52 55 56 60 64 64 62 62 64 63 62 62 62 61 60 62 66 68 71 72 73
67 69 67 66 64 65 64 63 62 61 58 60 60 52 51 49 53 59 64 64 63 63 64 63 62 62 60 61 62 64 66 70 72
69 69 68 66 65 65 65 66 64 64 62 58 62 63 55 50 50 52 54 57 61 61 61 62 61 61 60 60 60 62 64 68 71
66 67 67 66 66 66 67 68 66 65 63 63 63 59 61 60 57 55 60 53 57 59 60 62 62 62 62 60 60 62 65 68 71

GFSFLT1_sfc_temp_006.txt.gz
Temp
75 75 74 73 73 73 72 72 73 74 74 74 73 72 72 69 61 62 68 65 75 75 74 73 73 73 73 72 72 72 72 72 72
75 74 74 73 73 72 72 72 72 73 72 72 74 72 71 63 59 62 63 65 75 75 74 73 73 73 73 72 72 71 71 71 71
75 74 73 73 72 72 72 72 72 72 72 72 72 71 69 65 60 62 62 69 75 75 74 73 73 72 72 72 72 71 71 71 70
74 74 73 73 73 72 72 72 72 72 72 72 71 70 69 61 60 65 61 71 75 75 74 73 73 72 72 72 71 71 71 70 70
73 72 72 73 72 72 72 72 72 72 71 71 71 69 68 60 59 60 61 71 75 75 74 73 73 72 72 71 71 71 71 71 71
66 68 69 71 72 71 71 71 72 71 70 70 70 68 59 57 58 59 66 72 75 75 74 73 73 73 72 72 71 71 71 71 71
66 65 68 70 71 70 71 71 71 69 60 59 66 60 58 56 57 58 68 72 75 75 74 73 73 73 72 72 72 72 72 72 72
61 60 62 63 65 62 65 62 61 58 56 56 55 56 55 54 56 62 68 71 75 76 75 74 73 73 73 72 72 72 72 72 72
58 60 61 61 60 59 58 57 57 57 56 54 55 55 55 57 57 57 66 70 74 76 75 75 74 73 73 73 73 72 72 72 72
58 59 60 60 59 58 57 57 58 56 55 56 56 58 57 57 58 57 62 67 71 74 75 75 75 74 74 73 73 73 73 72 72
60 61 61 60 59 59 59 58 58 57 57 58 58 58 58 58 59 59 59 65 68 72 75 76 76 76 75 75 74 73 73 73 73
65 62 62 61 57 58 58 57 56 55 57 57 58 60 59 60 60 60 60 60 65 68 73 75 75 75 76 76 75 75 73 73 73
61 61 61 60 58 58 57 58 58 56 56 59 57 61 60 61 61 62 62 61 63 65 68 71 73 74 75 76 76 75 74 73 73
61 61 61 60 58 58 59 60 57 60 58 59 60 59 59 60 63 61 62 62 63 62 65 66 67 70 73 75 76 76 75 74 73
62 64 63 60 59 60 57 60 59 60 62 62 63 62 61 62 63 63 64 63 62 62 63 63 63 65 69 72 74 75 74 74 73
63 64 64 61 61 63 62 60 59 59 56 54 59 60 60 60 62 63 63 63 64 63 62 62 62 64 66 67 70 72 73 73 73
64 64 65 64 62 62 62 60 60 60 57 56 57 55 60 61 62 63 62 63 64 63 62 63 63 62 61 62 65 68 71 72 73
65 66 65 65 62 63 62 61 59 60 64 60 58 52 52 50 53 55 60 61 61 61 62 62 62 63 62 61 61 63 66 70 72
64 65 65 65 64 62 63 64 62 62 59 63 61 62 61 54 56 57 53 54 58 60 61 61 62 62 61 61 61 61 63 66 70
62 62 62 63 64 65 65 64 63 64 62 61 61 59 59 60 56 54 59 62 58 60 60 61 61 62 61 60 60 61 63 66 69

GFSFLT1_sfc_temp_009.txt.gz
Temp
75 74 74 73 73 73 72 72 72 73 74 74 74 72 72 67 60 62 64 64 72 74 73 73 73 73 73 72 72 72 72 72 72
76 74 74 73 73 72 72 72 72 73 73 73 73 73 71 62 59 60 61 63 75 75 74 73 73 73 73 72 72 71 71 71 71
75 74 74 73 73 72 72 72 72 72 72 72 72 72 70 64 59 60 60 66 75 75 74 73 73 73 73 73 72 72 71 71 71
74 74 73 73 73 72 72 72 72 72 72 72 72 71 69 60 59 62 60 66 75 76 74 73 73 73 73 72 72 72 71 71 71
72 72 72 73 73 73 72 72 72 72 72 71 71 70 68 60 58 59 59 69 74 76 75 74 73 73 73 72 72 72 71 71 71
65 67 68 71 72 72 72 72 71 71 70 70 70 69 60 58 56 57 64 70 73 75 75 74 74 73 73 72 72 72 72 72 72
65 64 68 70 71 71 71 71 71 69 60 58 65 61 58 56 56 56 66 70 73 75 75 74 73 73 73 73 72 72 72 72 72
59 59 60 61 63 62 64 62 61 58 56 56 54 55 55 55 55 59 66 70 73 74 75 75 74 73 73 73 73 72 72 72 72
57 58 58 59 60 59 58 58 57 56 56 54 53 53 53 55 57 56 63 68 71 74 75 75 75 74 73 73 73 73 72 72 72
57 57 57 58 58 58 57 57 57 56 55 55 54 55 55 55 57 57 61 65 68 72 74 75 76 75 74 74 73 73 73 73 72
58 57 57 58 58 58 58 58 57 57 56 56 55 56 57 56 58 59 58 63 66 69 72 74 75 76 76 75 74 73 73 73 73
61 58 57 58 57 57 57 56 56 55 56 56 57 57 57 58 58 59 59 60 63 66 70 73 74 75 76 76 76 75 74 73 72
59 61 60 59 57 58 57 57 56 56 56 58 58 59 60 60 59 60 61 61 61 64 66 69 72 73 75 76 76 76 75 73 72
61 61 62 58 59 57 58 59 56 59 58 56 59 59 58 60 62 61 62 61 62 62 64 65 66 69 72 74 75 76 75 74 74
61 62 62 59 59 59 57 58 58 58 60 61 61 61 61 60 61 62 63 62 61 62 63 63 63 64 67 70 73 74 74 74 74
60 62 62 61 60 62 62 58 57 58 57 57 59 61 61 60 61 62 63 62 63 62 61 62 62 63 66 67 69 71 73 73 73
61 61 62 62 60 60 60 59 58 58 58 57 56 54 58 57 60 61 61 61 63 62 62 61 61 61 61 61 65 67 69 72 73
61 61 61 61 59 60 61 59 58 57 60 60 57 52 52 53 55 54 59 60 60 60 61 62 61 61 61 61 61 63 65 68 71
60 60 60 60 61 59 60 63 62 60 57 60 61 61 60 55 55 60 56 58 59 60 60 60 61 61 60 61 61 61 62 65 68
57 57 57 57 59 59 60 61 62 63 60 60 60 60 58 58 55 53 59 63 60 61 61 62 61 62 62 61 61 62 63 66 68

GFSFLT1_sfc_temp_012.txt.gz
Temp
75 75 74 73 73 73 72 73 73 74 73 74 75 73 72 69 59 60 63 64 71 75 74 73 73 73 73 72 72 72 72 72 73
76 74 74 74 73 73 73 73 73 72 73 73 73 73 72 61 58 58 60 61 72 75 75 74 74 73 73 73 72 72 72 72 72
76 74 74 74 73 73 73 72 73 72 72 73 72 72 70 64 58 59 59 64 72 76 75 74 74 73 73 73 73 72 72 72 72
75 74 74 73 73 73 72 72 72 72 72 72 72 71 70 61 58 61 59 65 71 75 76 75 74 74 73 73 73 72 72 72 72
73 72 72 73 73 73 73 72 72 72 72 72 71 70 69 61 58 57 58 68 71 74 76 75 74 74 74 73 73 73 72 72 72
64 66 69 70 71 72 73 72 72 71 70 70 70 69 60 59 57 56 63 69 72 73 75 75 75 74 74 73 73 73 73 72 72
64 63 67 69 70 70 71 72 71 68 59 58 63 58 58 57 56 56 65 69 72 73 74 75 75 74 74 74 73 73 73 73 73
59 58 58 59 62 61 62 61 60 59 57 56 55 55 54 54 56 59 65 68 71 73 74 74 75 75 74 74 74 73 73 73 73
57 57 57 57 58 58 58 58 58 57 57 55 54 53 53 54 55 55 63 66 69 72 73 74 75 75 75 74 74 74 73 73 73
57 57 56 57 57 57 57 57 58 57 57 56 55 55 54 54 56 56 60 64 67 70 72 73 74 75 75 75 74 73 73 73 73
58 57 57 56 57 58 58 58 58 57 56 57 55 56 56 56 56 57 57 63 65 68 71 72 74 74 75 76 75 74 73 73 73
59 57 57 58 57 58 57 57 57 56 57 56 57 57 56 57 57 57 59 60 63 65 69 71 73 74 75 75 76 75 74 73 72
58 58 59 60 56 56 56 57 56 55 56 57 58 58 58 59 58 59 60 60 60 63 66 68 71 72 73 75 75 75 75 74 73
59 59 61 58 56 55 57 58 55 58 58 56 58 58 57 58 61 60 60 60 61 61 63 64 66 68 71 73 74 75 74 74 74
58 59 59 58 56 57 55 57 61 59 60 61 62 63 62 59 58 60 62 61 61 61 61 62 62 64 67 70 72 74 74 73 73
59 58 59 59 57 59 62 62 58 58 57 56 58 59 60 60 60 61 60 61 62 61 60 61 61 62 65 66 68 70 72 72 72
60 58 58 58 57 57 57 57 59 59 60 56 56 53 57 57 60 60 60 60 61 61 61 61 60 60 60 61 65 67 69 71 71
58 57 57 57 57 57 57 58 58 57 60 60 56 53 53 58 61 55 58 59 59 60 61 61 61 60 60 61 61 63 65 68 70
57 56 55 54 55 54 55 58 57 57 57 60 61 59 57 54 53 62 57 58 58 59 60 60 60 61 60 60 60 61 62 66 69
55 55 53 53 53 52 51 52 53 53 53 54 55 55 55 56 54 51 56 61 61 61 60 61 61 62 62 61 60 61 63 66 69

GFSFLT1_sfc_temp_015.txt.gz
Temp
76 75 74 74 73 73 73 73 73 73 74 74 75 74 73 71 73 72 73 74 73 74 76 75 74 74 74 74 73 73 73 73 73
77 75 74 74 73 73 73 73 73 73 73 73 74 73 73 73 73 72 72 73 72 74 76 75 74 74 74 74 73 73 73 73 73
76 75 74 74 74 73 73 73 73 73 73 73 73 72 71 71 72 71 71 70 71 74 76 75 75 74 74 74 74 73 73 73 73
75 75 74 74 74 74 73 73 72 73 73 73 72 71 70 73 72 71 72 68 71 73 75 76 75 75 74 74 74 73 73 73 73
73 72 72 73 73 73 73 73 73 73 72 72 71 70 69 74 72 71 71 68 71 73 74 75 76 75 75 74 74 74 73 73 73
72 69 69 70 71 72 72 73 73 71 70 70 69 68 73 73 72 72 68 68 71 73 74 74 75 76 75 74 74 73 73 73 73
70 67 66 69 69 69 70 71 71 70 73 72 67 71 71 71 71 71 67 69 71 72 73 73 74 75 75 75 74 74 74 73 73
70 69 70 70 66 71 70 71 71 71 72 71 71 70 70 70 70 69 66 68 71 72 73 73 73 74 75 75 75 74 74 74 73
68 69 69 68 70 68 69 70 70 70 70 70 70 70 70 69 69 69 64 66 69 71 72 73 73 74 74 75 75 74 74 74 73
69 69 69 68 68 68 68 69 69 69 70 70 69 68 69 69 69 69 63 63 67 70 72 73 73 74 74 75 75 75 74 74 73
68 69 68 68 69 69 69 69 69 69 69 68 69 68 69 69 69 69 69 63 65 67 70 72 73 74 74 75 75 75 74 74 73
68 68 68 69 69 68 68 68 67 67 68 67 68 69 69 69 68 69 69 69 64 64 68 71 72 73 74 75 75 75 74 74 73
68 68 69 70 68 68 67 67 66 65 64 64 66 66 68 69 69 69 70 69 69 67 65 67 70 72 73 74 75 75 74 74 74
68 68 69 69 68 67 66 66 65 64 65 64 65 67 67 68 68 69 69 69 68 70 67 64 65 67 70 72 74 75 74 73 73
67 67 67 67 66 66 66 64 66 65 65 63 63 67 68 69 68 68 69 69 68 68 68 68 68 64 65 68 71 72 73 73 73
67 67 67 66 65 65 65 64 63 63 66 58 59 63 67 68 69 70 69 68 68 69 69 69 69 69 65 66 67 69 71 72 72
65 63 63 64 64 64 64 63 61 62 65 59 58 55 62 69 66 69 69 69 70 69 69 69 69 68 69 67 65 66 68 70 71
62 61 61 61 61 60 60 60 59 57 61 63 57 53 53 56 64 67 69 69 68 68 68 68 69 69 69 66 65 62 64 67 70
60 60 59 59 59 58 58 60 58 57 55 58 63 59 58 52 52 64 65 68 68 68 69 68 68 68 68 65 63 62 63 65 68
58 58 57 57 58 57 57 57 56 57 54 54 54 55 56 57 53 49 56 61 64 66 67 69 69 69 69 68 66 62 63 65 67

GFSFLT1_sfc_temp_018.txt.gz
Temp
76 75 74 74 73 73 73 73 74 73 73 74 74 74 73 71 79 78 78 76 77 75 75 76 75 75 74 74 74 74 74 74 73
77 75 74 74 74 73 73 73 73 73 73 74 74 74 72 76 77 78 78 78 75 74 75 76 75 75 75 75 75 74 74 73 73
76 75 74 74 74 74 73 74 73 73 73 73 73 73 71 73 75 78 77 75 73 73 75 75 76 75 75 74 74 74 74 73 73
75 74 74 74 74 74 74 73 73 73 73 73 72 71 70 74 78 78 78 73 72 73 74 75 75 76 75 75 74 74 74 73 73
73 72 73 72 73 73 73 73 73 73 73 73 72 70 69 76 78 79 78 73 72 73 73 74 75 76 76 75 74 74 74 74 73
78 72 69 70 71 72 72 72 72 71 70 71 70 68 77 79 79 79 74 72 71 72 73 73 75 75 75 75 75 74 74 74 74
76 70 67 69 70 70 70 71 71 70 79 80 70 76 79 79 78 79 73 72 72 72 73 73 73 74 75 75 75 75 74 74 74
79 78 77 77 70 77 77 77 78 78 79 79 80 79 79 79 79 77 71 71 71 73 73 73 73 73 74 74 75 75 74 74 74
79 79 78 77 78 78 78 78 79 78 78 79 79 79 79 79 79 77 69 70 70 72 73 73 73 73 74 74 74 74 74 74 74
79 79 79 79 79 79 78 78 78 78 79 79 78 77 78 78 78 78 68 68 68 69 72 73 73 74 74 74 74 74 74 74 74
78 78 78 78 79 79 78 77 77 77 78 78 78 78 78 78 77 78 78 68 67 68 70 72 73 73 74 74 74 74 74 74 74
77 77 77 78 79 77 78 77 77 77 77 76 78 78 79 78 78 78 78 77 67 67 69 70 72 73 73 74 74 74 74 74 74
76 76 77 78 77 77 76 75 74 74 74 74 75 75 76 76 77 77 78 78 78 73 68 68 69 70 72 74 74 74 74 73 73
75 76 76 76 75 75 74 73 73 71 71 68 71 72 72 74 76 77 76 76 76 76 72 67 66 67 68 71 73 74 73 73 73
75 75 74 75 74 74 73 71 73 72 71 70 71 72 73 74 75 76 77 77 76 76 75 75 74 65 66 67 69 70 72 72 72
72 72 72 72 71 71 71 70 69 69 71 68 68 70 73 74 76 76 75 76 77 77 77 78 77 76 67 67 68 69 69 70 71
70 69 69 69 69 68 67 67 65 66 68 63 62 61 66 73 71 71 72 74 76 76 76 76 75 75 75 72 68 68 68 69 70
68 67 67 67 66 65 65 64 62 60 64 66 60 56 56 59 66 68 70 72 72 72 73 74 74 75 75 72 71 65 66 68 69
65 65 65 65 65 63 63 64 62 61 58 61 64 62 60 53 53 64 65 68 67 67 70 70 71 72 73 70 65 64 65 67 69
63 63 62 62 62 62 61 60 60 61 58 57 57 58 59 59 54 51 56 62 64 66 67 69 70 71 71 70 68 63 63 65 66

GFSFLT1_sfc_temp_021.txt.gz
Temp
77 75 74 74 73 73 73 73 73 73 73 73 74 74 74 72 77 77 78 77 77 76 75 75 76 76 75 75 75 75 74 74 74
76 75 74 74 73 73 73 74 73 73 73 73 74 74 72 74 75 76 78 77 77 76 75 76 76 76 76 76 75 75 74 74 74
75 75 74 74 74 74 74 74 74 73 73 73 73 72 71 74 75 75 76 76 76 75 75 75 75 76 76 75 75 75 75 74 74
75 74 74 74 74 74 73 74 73 74 74 73 73 72 70 72 75 76 78 75 76 75 74 74 76 75 76 75 75 75 74 74 74
73 73 73 73 72 73 73 73 73 73 73 72 72 71 69 73 74 76 77 76 76 75 74 74 74 76 76 76 75 75 75 74 74
80 74 71 71 71 72 72 72 72 71 70 70 71 69 74 76 78 79 76 76 76 75 74 74 74 74 75 75 75 75 75 75 74
80 72 69 70 70 70 71 71 71 70 75 79 71 74 78 79 79 79 75 76 76 75 73 73 73 74 74 75 75 75 75 75 75
81 80 79 77 70 74 76 76 74 78 79 79 80 80 81 80 79 78 73 75 75 75 74 73 73 73 74 74 74 75 75 75 74
81 81 80 79 79 78 78 78 79 79 79 80 79 80 80 80 79 79 71 72 74 74 74 73 73 74 74 74 74 74 74 74 74
81 80 80 80 80 79 78 78 78 79 80 80 80 79 79 79 79 79 71 70 72 73 74 73 73 74 74 74 74 74 74 74 74
79 79 79 79 79 80 79 78 78 77 78 78 79 79 79 80 79 79 79 70 70 72 73 73 73 73 74 74 74 74 74 73 73
78 77 77 78 80 79 78 77 76 74 74 73 74 77 78 78 78 78 78 78 69 69 73 73 73 72 73 74 74 74 74 73 73
77 77 77 77 76 74 72 72 73 73 74 74 74 74 75 76 76 76 78 77 77 74 69 71 72 72 72 73 73 74 73 73 73
76 74 73 76 75 75 74 73 73 71 72 72 73 73 74 74 76 76 76 77 76 76 72 68 67 69 71 72 72 72 72 72 72
75 74 74 74 73 72 71 70 71 70 70 71 70 71 72 73 72 74 77 76 76 76 75 75 74 67 68 71 72 72 72 71 71
72 71 72 71 70 70 69 68 66 66 68 64 65 67 68 71 71 70 70 70 72 74 75 74 75 74 69 71 71 71 72 72 71
70 68 68 68 67 67 65 65 62 63 65 60 59 56 61 68 66 66 68 69 70 70 71 71 71 70 70 68 69 70 72 72 72
67 66 66 65 65 63 63 62 60 58 61 63 57 52 51 55 61 63 65 66 65 67 66 67 68 69 69 67 67 67 68 70 71
65 64 64 63 63 61 61 62 60 59 56 58 61 58 57 50 49 60 60 63 63 63 64 65 66 67 67 65 63 62 63 64 65
63 63 62 61 61 60 59 58 58 59 56 55 55 55 56 56 51 47 52 57 60 61 62 64 63 64 64 65 63 63 63 64 64

GFSFLT1_sfc_temp_027.txt.gz
Temp
77 76 74 73 73 73 73 73 73 73 73 73 74 74 74 72 64 63 65 68 74 78 77 76 75 76 76 76 75 75 75 75 75
76 75 74 74 73 73 73 73 74 73 73 73 73 73 72 66 62 62 64 65 74 77 78 77 76 76 76 77 76 76 76 75 75
76 74 74 74 73 73 74 74 74 74 74 74 73 73 71 68 63 63 64 68 74 77 77 77 76 76 76 76 76 76 75 76 75
75 75 74 74 74 74 73 73 74 74 74 73 73 72 70 65 63 66 64 69 74 77 78 77 76 75 75 76 76 76 76 75 75
74 73 73 74 73 73 73 73 73 73 73 72 71 70 69 65 63 65 65 71 75 77 77 77 76 75 75 75 75 76 76 75 75
68 69 70 72 72 72 72 72 72 71 70 70 70 69 65 63 64 65 68 73 75 77 78 77 76 76 75 74 74 75 75 75 75
70 67 69 71 71 71 72 72 71 69 64 64 67 66 66 64 66 66 70 74 78 79 78 77 76 76 75 74 74 74 75 75 75
65 63 64 63 65 64 66 65 64 63 63 63 64 65 63 64 66 70 71 75 78 79 78 77 76 75 75 75 74 74 74 74 74
64 63 63 62 63 62 62 62 64 64 66 66 69 70 69 69 70 70 69 73 77 78 78 77 76 76 75 75 75 74 73 74 73
64 64 64 64 65 65 66 68 69 69 67 69 70 70 69 69 67 66 67 69 72 75 77 77 78 77 76 75 75 74 73 73 73
65 65 66 69 69 70 69 68 68 68 67 64 64 64 64 64 64 64 64 68 70 73 75 77 77 78 78 76 75 74 74 73 73
66 67 68 68 69 69 68 67 62 59 61 59 61 61 61 62 62 64 63 63 65 69 72 73 74 75 75 75 74 75 74 74 73
67 67 65 66 65 60 58 56 56 55 55 55 56 56 58 58 58 60 59 60 62 65 68 69 71 72 72 73 74 74 73 71 71
65 63 59 58 57 56 56 54 53 52 53 56 56 54 57 55 60 56 58 58 59 59 63 64 65 67 69 70 71 72 71 71 71
58 57 56 56 54 54 53 52 52 51 50 57 55 54 53 53 52 53 58 56 57 56 58 56 57 63 66 67 68 69 69 69 70
55 54 54 53 52 51 53 51 49 49 49 46 49 48 51 50 51 56 52 55 57 55 57 56 57 59 62 63 65 66 67 67 68
56 52 51 51 50 49 48 47 46 47 47 44 42 41 45 48 53 50 54 51 52 55 56 56 57 56 56 57 61 62 64 66 66
53 52 50 49 48 46 46 46 45 43 44 45 43 38 36 43 46 51 49 50 51 48 53 54 55 55 52 55 56 59 60 62 64
52 52 50 48 47 46 46 49 44 43 41 43 49 44 41 37 37 44 48 49 50 50 50 51 53 52 53 54 55 56 59 60 61
51 50 48 47 46 45 45 44 43 43 42 41 41 41 40 40 37 36 39 46 47 48 49 50 50 51 51 50 52 56 56 58 59

GFSFLT1_sfc_temp_033.txt.gz
Temp
77 76 74 73 73 73 72 72 72 72 72 73 73 74 73 71 62 60 61 63 70 74 76 77 76 76 76 76 76 75 75 75 75
77 75 74 73 73 72 72 73 73 73 73 73 73 73 72 65 61 60 60 60 71 74 75 76 77 76 75 76 76 76 76 76 76
76 75 74 73 73 73 73 73 73 73 74 74 74 74 71 67 62 61 60 65 71 74 75 76 76 77 76 76 76 76 76 76 76
75 74 74 73 73 73 73 73 73 73 73 73 73 71 70 65 63 64 62 67 72 74 75 76 76 77 77 76 75 75 75 76 76
74 73 72 73 73 73 73 73 73 73 73 72 71 70 69 64 63 62 63 70 73 75 75 76 76 77 77 76 75 75 75 75 75
66 68 69 71 72 73 73 73 73 71 70 70 69 68 63 61 61 61 66 71 74 75 75 75 76 76 77 76 76 75 75 75 75
66 65 68 71 71 71 72 72 71 69 63 62 64 61 61 60 61 62 68 72 75 76 76 75 75 76 76 75 75 75 75 75 75
61 60 61 62 63 62 63 62 62 61 61 61 60 61 60 60 62 64 69 72 74 75 75 75 75 76 76 75 75 75 74 74 74
59 59 60 59 60 60 60 60 64 66 67 66 63 60 60 60 60 61 66 69 72 73 74 74 74 74 75 76 75 75 74 74 73
59 59 60 60 61 65 66 66 65 65 65 62 58 59 57 57 57 56 62 67 69 71 72 73 73 73 74 74 74 73 73 73 72
63 60 60 61 66 65 64 63 61 59 55 55 55 54 54 54 55 55 54 63 65 67 70 70 71 70 71 71 71 71 71 71 71
61 63 61 61 63 62 61 59 53 52 53 51 53 53 51 52 52 53 52 53 60 63 66 66 67 67 68 69 69 69 69 69 69
63 61 60 59 56 53 51 50 50 49 48 48 49 49 50 49 50 51 50 51 53 56 62 62 62 63 65 66 67 67 67 67 67
58 55 52 51 50 49 50 49 47 46 47 49 49 48 47 48 52 48 50 50 50 50 56 57 58 60 62 63 64 65 64 64 64
53 51 50 49 48 47 47 46 46 44 43 50 49 46 46 47 46 46 50 48 48 48 48 47 49 57 58 60 61 62 62 62 63
50 48 48 47 46 45 46 45 43 43 43 41 43 43 45 45 45 45 45 46 48 46 47 48 48 49 55 56 58 59 59 60 61
51 47 46 46 45 44 43 42 41 41 41 39 37 36 40 43 49 44 46 44 44 45 49 45 46 45 45 49 55 56 57 58 60
48 47 46 45 43 42 41 41 40 38 40 40 39 34 32 36 40 43 42 45 41 44 44 45 47 45 45 47 48 53 55 57 58
48 47 45 44 42 41 42 43 39 39 37 39 44 39 37 33 31 38 43 40 44 40 40 43 43 44 45 47 50 52 53 55 56
47 46 44 43 41 40 40 39 39 38 37 36 36 35 36 35 31 31 34 40 42 42 42 39 42 43 43 41 45 51 52 54 55

GFSFLT1_sfc_temp_036.txt.gz
Temp
77 75 74 73 73 72 72 72 72 72 72 73 73 73 73 71 61 60 61 62 68 73 75 76 76 76 76 76 76 76 75 74 74
77 75 74 73 72 72 72 73 73 73 73 73 73 73 72 65 61 60 60 60 70 73 75 76 77 77 77 76 77 76 76 77 77
77 75 74 73 73 73 73 73 73 73 73 74 73 73 70 66 62 62 61 65 71 73 75 75 76 76 77 77 76 76 76 77 77
76 74 74 73 73 73 73 73 73 73 73 73 73 71 70 65 63 63 62 66 72 74 75 75 76 76 77 77 76 76 75 76 76
74 72 72 73 73 73 73 73 73 73 73 72 71 70 68 62 61 61 61 70 73 75 75 75 76 76 76 76 76 76 75 75 75
65 67 69 71 72 73 73 73 73 71 69 69 68 67 61 60 60 60 66 71 74 75 75 75 75 75 74 75 75 76 76 75 75
65 64 67 70 70 70 71 71 69 66 62 61 63 60 59 59 60 61 70 72 74 75 75 75 75 76 76 75 75 74 75 75 75
60 59 60 60 63 61 62 61 61 60 60 61 59 60 58 58 59 62 68 71 73 74 74 74 74 74 74 75 75 74 74 74 74
59 58 58 59 59 59 59 61 65 65 65 64 63 57 56 56 57 57 65 68 71 73 73 73 73 73 73 73 73 73 73 73 72
58 58 59 59 60 65 64 64 63 62 61 57 56 56 54 54 53 52 62 65 67 70 71 71 71 70 71 71 71 71 71 71 71
63 62 62 63 63 63 62 61 58 52 52 53 52 51 51 51 51 51 50 62 64 66 68 68 67 67 68 69 69 68 69 69 69
63 62 60 58 59 60 57 53 51 49 50 49 50 50 48 49 50 49 49 51 58 63 64 64 64 65 66 67 67 67 67 67 67
62 60 57 55 52 51 49 47 48 46 45 45 47 46 47 47 47 48 48 49 50 53 60 60 61 62 63 64 65 65 65 65 65
59 55 51 50 48 47 48 46 45 43 45 47 47 45 44 46 50 46 47 48 47 47 54 55 56 58 60 61 62 63 63 63 63
54 50 48 48 46 45 45 45 43 42 41 47 47 43 44 44 43 44 48 46 46 45 46 44 46 55 57 58 59 60 61 61 61
50 47 47 46 45 43 45 43 41 41 41 40 41 41 43 43 43 44 43 44 45 43 44 44 44 45 53 54 56 58 58 59 59
49 46 45 45 44 43 41 40 40 39 39 37 36 35 39 41 46 41 43 41 42 44 48 43 44 43 42 46 54 54 55 57 58
47 45 44 43 42 40 39 39 39 37 38 38 37 33 31 33 38 40 40 41 39 42 41 43 44 43 41 45 46 51 53 55 57
46 45 44 42 41 40 41 41 37 38 35 37 42 38 36 31 30 36 40 37 42 38 38 41 41 42 43 45 48 51 52 54 56
45 44 42 41 40 39 39 38 37 37 36 35 34 34 34 33 29 30 32 38 40 40 38 37 40 41 41 40 43 50 52 53 54

GFSFLT1_sfc_temp_039.txt.gz
Temp
76 75 74 73 73 73 73 73 73 73 73 73 73 73 73 72 74 73 72 73 70 73 75 75 76 77 76 76 76 76 76 76 75
77 75 74 73 73 73 73 73 73 73 73 74 74 74 72 75 75 74 73 72 70 73 75 75 76 77 77 77 76 78 77 77 76
77 75 74 73 73 73 73 73 73 73 74 74 74 72 71 73 74 74 73 70 71 74 75 75 76 76 76 77 77 77 77 77 77
76 74 74 73 73 73 73 73 73 74 74 73 73 71 70 74 75 73 74 69 72 74 75 76 76 76 76 77 77 77 76 76 76
74 73 73 73 73 73 73 73 73 73 73 72 71 69 69 74 73 74 74 70 73 75 75 76 76 75 75 75 76 76 76 76 76
73 69 69 71 72 72 72 73 72 71 69 68 68 67 74 73 74 74 70 73 75 76 75 75 76 76 76 75 74 74 75 76 76
72 68 67 69 70 69 70 70 69 69 74 74 69 73 73 73 72 73 69 72 74 75 75 75 75 75 75 75 75 75 75 74 74
73 73 73 72 67 73 72 72 73 71 72 71 70 70 71 72 71 69 68 71 73 74 74 74 73 74 74 73 73 73 73 73 73
72 71 71 71 72 72 72 71 67 67 66 65 69 69 69 69 69 68 65 68 70 72 72 72 71 71 71 71 71 71 71 71 71
71 70 71 70 70 70 67 65 65 64 66 67 66 65 65 65 67 67 63 66 68 69 70 69 69 69 69 69 69 69 69 69 69
67 65 64 64 64 64 66 64 64 63 64 65 64 63 63 63 63 64 64 62 65 66 66 66 66 66 67 68 67 68 68 68 68
64 63 61 61 65 63 64 63 62 62 62 62 63 63 62 62 61 62 62 62 60 62 63 63 63 63 65 66 66 66 66 66 66
63 61 61 59 62 62 60 59 59 59 58 59 61 60 60 61 60 60 61 59 60 59 58 59 59 60 61 63 64 64 64 64 64
60 58 59 60 59 58 59 56 57 55 57 58 60 58 58 59 59 59 58 57 57 58 55 55 55 57 59 60 61 61 62 62 62
58 56 58 58 57 57 56 55 55 54 53 56 57 57 57 57 57 58 59 57 56 56 55 56 56 54 55 57 58 59 60 60 60
56 56 55 55 54 54 55 55 53 52 52 54 56 56 55 56 57 57 57 55 54 54 56 56 55 55 53 54 55 57 57 58 59
56 55 54 54 53 53 53 53 52 51 50 49 49 48 54 55 56 54 54 53 54 54 54 53 53 54 53 52 53 53 54 56 58
54 53 53 52 53 50 50 50 49 49 49 49 50 47 46 45 52 53 53 53 51 52 51 51 52 52 52 51 51 51 52 54 56
53 52 52 52 51 50 50 50 49 49 46 49 49 48 47 43 42 49 51 50 49 48 49 50 50 50 50 49 49 49 51 53 55
51 51 50 50 49 49 49 48 48 48 47 46 46 45 46 44 41 39 43 46 48 48 47 48 48 49 49 49 48 49 50 52 53

GFSFLT1_sfc_temp_042.txt.gz
Temp
76 75 74 73 73 73 73 73 73 73 73 73 74 74 73 72 80 79 79 78 72 73 74 75 76 76 77 77 77 76 76 76 76
76 75 74 73 73 73 73 73 73 73 73 74 74 74 72 78 81 80 79 79 72 74 75 75 76 76 77 77 77 76 78 77 77
76 75 74 73 73 73 73 73 73 73 73 74 73 72 71 78 80 79 79 74 72 74 75 76 76 76 76 76 77 77 77 77 77
76 74 74 73 73 73 73 73 73 73 73 73 72 71 70 78 81 80 81 70 73 75 75 76 76 76 76 76 76 77 77 76 76
74 73 73 73 73 73 73 73 73 73 72 71 70 69 69 81 80 81 78 72 75 76 75 76 76 76 75 75 75 75 76 76 76
78 70 71 72 72 72 72 72 71 70 70 69 68 67 82 81 81 81 70 72 75 75 75 75 75 75 75 75 75 74 74 75 75
80 71 69 70 70 70 70 70 69 70 83 81 72 82 81 81 79 79 69 72 74 74 74 74 74 74 74 73 73 73 73 73 73
81 81 80 80 69 80 78 79 81 78 79 78 79 79 79 80 79 72 67 70 73 73 73 73 72 72 72 72 71 71 72 71 71
81 82 80 80 82 80 80 78 73 73 75 76 78 77 77 77 77 72 65 68 71 72 72 70 70 70 70 70 70 69 70 70 70
80 80 81 80 79 77 75 71 70 76 76 76 74 73 74 73 75 75 63 66 68 69 69 68 68 68 68 68 68 68 68 68 69
76 73 70 68 69 69 73 76 75 75 74 74 73 73 72 72 71 74 68 63 65 65 65 65 65 65 66 66 66 67 67 67 67
70 69 68 70 72 74 74 73 74 73 72 71 72 72 71 71 70 71 71 67 60 61 62 62 62 63 64 65 65 65 64 65 66
68 65 65 70 72 72 71 71 71 69 68 69 70 70 69 70 69 69 69 67 68 62 58 58 59 60 61 62 63 63 63 63 64
67 69 65 71 69 68 68 66 67 65 65 66 68 67 68 66 67 66 65 63 65 65 60 57 58 57 58 59 60 61 61 61 61
63 67 68 69 67 66 65 64 64 63 63 64 66 66 66 66 66 65 66 65 63 63 61 62 62 58 57 57 58 58 59 59 60
62 67 67 67 65 64 65 63 61 60 61 62 65 65 64 63 64 65 65 62 61 61 62 61 61 61 58 57 56 56 57 57 58
59 65 65 64 63 62 62 62 60 59 59 57 57 58 61 64 63 63 62 61 62 60 60 59 59 59 58 57 54 54 55 56 57
62 64 64 63 62 59 59 59 58 57 57 57 56 55 55 54 62 60 60 60 59 58 57 57 57 57 57 55 55 53 52 54 56
62 63 62 61 60 59 58 59 58 58 55 57 57 54 54 50 50 58 58 58 56 56 56 56 56 56 55 53 52 51 51 52 54
58 61 60 59 59 58 57 56 56 58 56 54 54 54 53 52 48 45 52 55 56 56 54 54 54 55 55 54 52 50 50 51 52

GFSFLT1_sfc_temp_045.txt.gz
Temp
76 75 74 74 74 74 74 74 74 74 74 74 74 74 73 72 81 80 78 79 74 74 75 75 76 76 77 77 77 77 76 77 77
76 74 74 74 74 74 74 74 74 74 74 74 74 73 72 76 81 81 80 77 74 74 76 76 76 76 76 77 77 77 77 77 77
76 74 74 74 74 74 73 74 74 74 74 74 73 72 71 77 81 80 79 72 74 75 76 76 76 76 76 76 77 77 77 77 77
76 74 74 74 74 73 73 73 73 73 73 73 72 71 70 75 81 80 79 72 75 76 75 76 76 76 76 75 75 76 77 77 77
74 73 73 74 73 73 73 73 73 73 72 71 70 70 70 76 80 77 73 73 75 76 75 75 76 76 75 75 75 75 74 74 75
75 70 71 72 72 72 72 72 71 71 71 70 70 69 79 79 77 75 70 73 75 75 75 74 74 74 74 73 73 73 74 74 73
78 72 70 72 72 71 72 71 71 70 79 71 71 80 81 80 78 71 69 71 74 74 74 73 73 72 72 72 72 72 72 72 72
78 77 76 76 69 77 74 74 76 78 78 78 79 79 79 79 78 68 67 70 72 73 73 71 71 71 71 71 70 70 70 70 70
80 80 79 79 79 79 76 76 76 76 77 78 78 77 77 76 75 64 65 68 71 71 71 69 69 69 69 69 69 69 69 69 69
81 80 80 80 78 77 76 75 75 76 77 77 75 74 74 74 74 70 64 67 68 68 68 67 67 67 67 67 67 67 67 68 68
80 79 76 74 74 73 76 76 75 74 75 74 75 74 73 72 71 71 64 64 64 65 65 65 65 65 66 66 66 66 66 65 66
78 75 72 74 76 76 75 74 74 73 72 72 73 72 71 70 70 69 69 62 60 61 62 62 62 63 64 65 65 65 65 64 64
75 72 71 74 75 74 72 71 70 69 68 68 69 69 69 69 69 68 68 66 66 59 59 59 60 60 61 62 63 63 63 62 63
73 72 70 73 72 71 70 68 67 65 66 66 68 67 66 66 68 67 65 63 63 63 61 59 60 60 60 60 61 61 61 61 61
71 70 71 71 69 68 67 66 65 64 63 65 66 65 65 65 64 64 65 64 62 62 61 60 61 61 60 60 60 59 59 59 59
70 69 69 69 68 67 67 64 63 60 61 62 63 63 63 63 63 63 64 63 62 61 61 60 59 59 59 60 58 57 57 58 58
67 66 67 67 65 64 64 63 60 60 59 56 57 56 58 62 62 63 62 61 61 60 60 59 58 57 56 56 57 56 56 56 57
62 62 64 64 64 61 61 60 59 57 58 58 55 53 53 53 61 60 61 60 59 58 58 57 57 56 55 55 55 54 53 54 55
63 64 64 63 62 60 59 60 59 58 54 57 57 54 53 49 48 58 58 60 57 57 56 56 55 55 54 54 54 54 53 53 54
62 60 60 61 60 59 58 58 57 57 55 53 53 53 53 53 47 44 50 54 56 56 56 55 55 54 54 52 53 53 52 53 53

GFSFLT1_sfc_temp_048.txt.gz
Temp
76 74 74 74 74 74 74 74 74 74 74 75 74 74 73 72 71 71 72 69 75 76 76 76 76 76 76 77 77 77 77 76 77
75 74 74 74 74 74 74 74 74 74 74 75 74 72 72 69 69 72 69 70 75 76 76 76 76 76 76 76 77 77 77 77 77
75 74 74 74 74 74 74 74 74 74 74 74 73 72 70 71 73 73 67 73 76 76 77 75 76 76 76 76 75 76 77 77 77
75 74 74 74 74 73 73 73 73 73 73 72 72 71 70 67 72 73 71 73 76 77 76 76 76 76 75 75 75 75 75 75 75
74 72 73 73 73 73 73 73 73 73 72 72 71 70 69 65 72 70 70 74 76 76 75 75 75 75 74 74 74 74 74 74 74
71 70 71 72 72 72 73 72 72 71 71 71 70 69 70 74 71 66 71 73 75 75 74 74 74 73 73 72 72 72 72 72 72
74 68 70 71 71 71 72 72 72 70 71 68 68 66 68 68 64 63 70 72 74 74 73 72 72 72 72 71 71 71 71 71 71
69 65 66 65 66 67 69 68 69 68 68 67 67 67 65 64 62 65 69 71 73 73 71 70 70 70 70 70 69 69 69 70 70
67 68 67 68 68 70 70 69 67 67 69 66 66 65 64 62 59 60 66 68 71 71 70 69 68 68 68 68 68 68 68 68 68
69 68 69 68 69 67 67 66 65 65 66 65 65 64 62 63 59 55 64 67 68 68 68 67 67 67 67 67 67 67 67 67 66
69 68 65 65 64 65 65 64 64 62 62 62 63 61 61 61 60 56 58 64 65 65 65 65 65 65 66 66 66 66 66 66 65
68 64 63 63 64 65 64 64 62 59 61 58 60 59 58 59 60 58 55 56 62 63 63 63 63 63 64 65 65 65 64 64 64
66 64 63 66 64 63 60 59 57 56 55 54 56 56 57 57 57 58 56 54 56 59 61 61 62 62 63 63 63 63 63 62 62
64 62 62 64 62 59 60 55 55 53 53 55 55 54 55 56 60 55 56 55 54 53 60 60 62 62 63 62 63 62 61 61 61
62 61 61 61 59 58 55 54 53 52 50 59 57 53 54 54 54 54 58 54 55 53 53 51 51 60 61 61 62 60 60 59 59
61 60 60 59 57 56 57 53 52 49 49 49 50 50 53 53 52 53 53 53 54 52 51 49 48 49 58 59 59 59 59 58 58
60 59 58 57 56 55 57 53 51 49 49 46 46 44 47 51 53 51 53 51 51 51 52 49 49 47 46 49 58 57 57 57 57
57 56 58 58 56 53 54 53 51 47 47 48 45 42 40 42 48 49 49 50 47 47 48 50 49 48 46 49 50 55 56 56 57
59 57 56 58 53 51 50 52 50 48 46 46 51 45 43 39 37 44 46 47 49 46 45 46 47 48 46 50 53 55 55 56 56
58 57 54 54 51 52 49 49 48 47 45 44 43 43 42 42 38 35 39 43 45 45 45 44 44 47 46 44 48 54 54 55 55

GFSFLT1_sfc_temp_051.txt.gz
Temp
75 75 74 74 74 74 75 74 74 74 74 75 74 74 73 72 71 71 70 68 76 76 76 77 76 76 76 76 76 77 77 76 76
75 74 74 74 74 74 74 74 74 74 74 74 73 73 72 68 66 67 67 69 76 76 77 76 76 76 75 76 76 76 76 77 77
74 74 74 74 74 74 74 74 74 74 74 73 72 72 71 69 70 68 69 74 77 76 76 76 76 76 76 76 75 75 76 76 76
74 74 74 74 74 73 73 73 74 73 73 72 72 71 70 65 71 71 70 74 76 76 75 75 75 75 75 74 74 74 74 74 74
73 72 73 73 73 73 73 73 73 73 72 72 71 70 70 67 69 69 70 75 75 75 74 74 75 74 73 73 73 73 73 73 72
70 69 71 72 72 72 73 73 72 71 70 71 70 69 66 66 66 63 71 74 75 74 74 73 73 72 72 71 71 71 71 71 71
71 68 69 71 71 71 72 72 71 70 67 65 67 65 63 62 61 62 71 73 74 74 72 71 71 71 71 70 70 70 70 70 70
65 64 65 64 66 66 68 67 66 65 65 64 63 63 61 59 59 65 70 72 74 72 70 70 70 70 69 69 69 69 69 69 69
63 62 62 62 63 63 64 63 65 65 65 64 64 62 60 57 56 59 67 70 72 70 69 69 68 68 68 68 68 68 68 67 67
64 63 63 63 63 64 62 63 63 62 62 61 62 61 58 56 55 54 65 68 68 68 68 68 67 67 67 67 67 67 67 67 66
64 64 63 62 62 62 62 62 61 59 59 59 58 57 57 56 54 54 57 65 66 66 66 66 65 66 66 66 66 66 66 65 65
64 62 61 61 62 62 61 60 58 57 58 55 56 56 55 56 54 53 52 56 63 64 64 64 64 64 65 65 65 65 64 63 63
63 62 61 61 61 59 57 56 54 52 52 52 53 53 54 54 53 52 52 52 54 59 62 63 63 63 64 64 64 64 63 62 62
64 61 60 60 58 57 58 53 53 50 50 53 52 51 52 53 56 51 51 52 51 51 60 61 60 61 62 63 63 63 62 61 61
62 59 59 58 56 54 54 52 49 49 48 56 54 50 51 51 50 51 55 52 52 51 51 47 50 59 60 60 61 62 61 60 60
61 59 57 56 56 54 54 51 49 47 47 48 48 48 50 50 50 50 50 51 52 51 48 47 46 47 57 57 59 60 60 59 59
60 59 57 56 54 53 53 53 49 50 48 47 44 45 48 49 50 48 51 48 49 50 50 47 47 45 44 47 57 57 58 58 59
57 55 53 53 53 52 51 52 51 46 46 46 46 42 42 41 46 47 47 46 45 45 45 47 47 46 44 48 49 54 56 58 58
59 55 53 52 51 50 50 51 49 48 45 46 49 43 42 39 39 42 43 44 46 43 43 43 44 45 44 48 51 55 56 57 58
58 57 56 54 52 49 49 48 49 48 45 43 42 41 40 39 37 35 38 40 42 42 41 42 41 43 43 42 45 53 55 56 57

GFSFLT1_sfc_temp_057.txt.gz
Temp
76 75 75 75 74 75 75 75 75 75 75 75 75 74 73 69 65 65 66 66 76 77 77 75 75 75 75 75 76 76 76 76 76
75 74 74 74 74 75 75 75 74 74 74 74 74 73 71 64 64 64 65 67 76 76 76 76 76 76 75 75 74 75 76 76 76
74 74 74 74 74 74 74 74 74 74 74 73 73 71 69 66 65 65 66 73 76 76 75 75 75 74 75 74 74 74 73 73 74
74 74 74 74 74 74 74 74 74 74 73 73 72 70 69 63 65 68 66 74 76 75 75 75 74 74 73 73 74 73 73 73 73
73 72 73 74 73 73 73 73 73 73 73 72 71 69 68 62 64 64 66 75 75 74 74 74 73 72 72 72 72 72 71 72 71
68 68 70 72 72 73 73 73 73 71 70 70 69 66 62 61 62 62 72 75 75 74 73 72 72 71 71 70 70 70 70 70 70
68 66 69 71 71 71 72 72 71 68 63 62 64 60 59 59 60 61 72 74 74 72 71 71 71 70 70 69 69 69 69 69 68
65 63 64 64 65 64 67 65 63 61 61 59 58 57 56 56 58 63 71 74 73 72 70 70 69 69 69 69 68 68 68 68 67
62 62 62 62 62 61 62 60 60 60 60 58 57 56 55 54 55 59 68 72 72 71 69 69 69 68 68 68 67 67 67 67 66
62 62 61 61 61 60 60 59 59 58 58 57 57 55 53 53 53 55 66 68 69 69 69 68 68 67 67 67 66 66 66 65 65
63 61 60 60 60 60 59 59 58 56 56 55 55 53 52 52 52 53 57 66 67 67 67 67 66 67 67 66 66 65 64 64 64
62 61 59 59 59 59 58 57 55 54 55 53 53 52 50 51 51 52 52 56 64 66 66 66 65 65 66 66 66 65 63 63 63
61 60 59 59 58 57 55 54 52 51 51 50 50 50 50 49 49 50 50 50 52 60 64 64 64 64 64 65 65 64 63 63 62
62 61 58 58 56 55 55 51 52 50 49 50 48 48 48 49 52 48 48 49 49 49 60 61 61 61 62 63 63 63 63 62 61
62 58 58 57 55 53 52 51 48 48 48 53 50 47 47 47 47 47 51 48 49 48 48 46 48 59 60 61 61 62 62 61 61
63 60 58 57 57 56 53 50 49 47 45 46 46 46 47 47 46 48 48 49 49 49 47 45 44 45 55 57 59 60 60 61 61
62 59 58 58 54 52 51 51 47 46 44 45 43 43 46 46 46 46 48 46 46 46 46 45 45 43 42 45 55 56 58 59 60
62 59 59 57 57 54 52 50 49 45 43 44 45 41 42 40 43 43 43 44 43 43 43 44 44 43 42 43 45 52 55 58 59
57 57 56 55 53 51 51 52 50 49 47 44 46 42 42 41 40 41 41 41 44 41 41 40 41 41 40 45 50 53 54 56 58
55 55 52 52 52 52 52 51 51 51 48 46 43 41 41 42 42 37 38 40 40 41 40 39 39 40 39 40 45 51 52 54 55

GFSFLT1_sfc_temp_060.txt.gz
Temp
76 76 76 75 75 75 75 75 75 75 75 75 75 74 72 69 64 64 65 66 76 77 76 76 75 75 76 76 76 76 76 76 76
75 75 74 76 75 75 75 75 75 74 74 74 74 73 70 63 62 63 64 67 77 77 76 76 76 75 75 75 75 74 74 74 74
74 74 74 74 75 74 74 74 74 74 74 74 73 71 69 65 64 64 65 72 76 76 75 75 75 75 74 75 74 74 74 73 74
74 74 74 74 74 74 74 74 74 74 73 73 71 70 68 63 64 67 65 74 76 75 75 75 74 73 73 73 73 73 73 72 72
73 72 73 74 74 73 73 73 73 73 72 72 71 69 67 61 63 63 66 75 75 75 74 74 73 72 72 71 71 71 71 71 71
68 68 70 72 73 73 73 73 73 71 69 70 68 66 61 60 61 61 72 75 75 73 73 72 72 71 70 70 70 70 70 70 69
67 66 69 71 71 71 72 72 71 66 61 60 63 58 58 59 59 60 72 75 73 72 71 71 70 70 70 69 69 69 69 68 68
64 62 63 63 65 64 66 64 62 61 60 58 57 56 56 55 57 62 71 74 73 71 70 70 70 69 69 69 68 68 68 67 67
62 62 61 61 62 61 61 60 59 59 59 57 56 55 54 54 54 57 68 72 72 70 70 69 69 68 68 68 67 67 67 66 66
62 62 61 60 60 60 59 58 58 57 57 56 56 54 53 53 53 55 66 69 70 70 69 68 68 68 68 67 66 66 65 65 65
62 61 60 60 59 59 59 58 56 55 55 54 54 52 51 51 53 53 58 67 68 68 68 67 67 67 67 67 66 65 64 64 64
62 61 60 60 59 59 57 56 54 53 54 52 52 51 49 50 51 51 52 56 64 66 67 66 66 66 66 66 66 65 64 63 63
61 61 60 59 58 57 55 53 52 51 51 50 50 49 49 48 49 49 49 50 52 61 65 65 64 64 65 65 65 64 64 63 62
62 61 60 58 56 55 55 51 51 49 49 50 48 46 47 48 51 47 48 48 48 48 61 61 61 62 63 63 63 63 63 63 62
61 60 58 58 55 52 52 51 48 49 48 53 49 45 46 46 46 47 49 47 48 46 47 45 47 58 60 61 61 62 62 62 62
62 60 58 57 56 55 54 49 49 46 46 46 45 45 45 45 45 45 45 47 47 45 44 43 43 44 54 55 58 59 60 61 61
62 60 59 57 54 52 53 50 46 46 45 46 43 43 45 44 45 44 46 44 44 44 44 43 43 41 41 45 54 55 57 59 60
62 59 58 58 57 53 51 51 50 46 45 44 46 40 42 40 42 42 42 42 41 41 42 42 42 40 40 43 45 54 55 57 59
61 59 58 56 54 52 51 51 51 50 46 46 49 46 46 41 39 40 39 40 41 39 39 39 40 39 39 45 49 52 53 55 57
60 58 55 53 53 52 52 50 51 51 48 47 45 46 44 43 43 41 39 39 39 39 39 38 37 38 38 39 44 50 52 54 55

GFSFLT1_sfc_temp_063.txt.gz
Temp
77 77 77 76 75 76 76 76 75 75 76 75 75 74 72 71 76 76 75 77 76 76 77 76 75 76 76 76 76 76 76 76 76
76 76 76 75 75 75 75 75 75 75 75 75 74 72 70 76 76 76 76 76 77 77 76 76 76 76 76 75 75 75 74 74 74
75 75 76 76 75 75 75 75 75 74 74 74 73 71 70 74 75 75 77 76 76 76 76 75 75 75 74 74 74 74 74 74 74
74 74 74 75 75 74 74 74 74 74 74 73 72 70 68 75 76 76 78 74 76 76 75 74 73 73 73 73 73 73 73 73 73
73 72 73 74 74 74 73 74 74 73 73 72 71 69 68 75 75 76 78 75 76 75 74 74 73 72 72 71 71 71 71 71 71
74 70 71 72 73 73 73 73 72 70 69 69 69 67 74 75 75 76 73 75 75 74 73 73 72 71 71 71 70 70 70 70 69
74 70 69 71 71 72 73 72 70 69 74 73 68 74 73 74 74 76 73 75 74 72 72 71 71 70 70 70 70 69 69 69 68
74 73 73 73 69 74 73 73 73 72 73 72 72 71 72 73 73 72 71 73 73 71 71 70 70 70 69 69 69 68 68 67 67
72 72 71 71 72 72 72 72 71 71 70 71 71 71 71 71 71 72 68 72 72 71 70 70 69 69 69 68 68 67 67 66 66
72 71 71 71 71 72 71 71 70 69 70 70 69 68 69 68 70 72 66 69 70 70 70 69 69 68 68 67 67 66 66 65 65
71 70 70 70 70 71 71 70 69 68 69 68 67 67 66 67 67 70 71 67 69 69 69 69 68 68 68 67 67 65 65 64 64
71 70 69 70 70 70 69 68 67 66 66 66 66 66 66 65 65 66 68 69 65 67 68 67 67 67 67 67 66 65 64 64 63
70 70 70 71 69 69 68 66 65 65 65 64 64 64 63 64 64 64 65 65 67 66 66 66 65 65 66 66 65 65 64 64 63
70 70 70 70 68 67 66 63 65 62 62 62 61 61 62 62 62 62 62 62 63 64 63 62 62 63 63 64 64 64 63 63 63
69 69 70 68 67 65 63 62 61 63 62 61 60 60 60 60 61 61 61 61 60 61 60 60 60 59 60 61 62 62 62 62 62
67 68 69 67 66 65 64 62 59 58 60 58 58 58 58 58 59 59 60 58 58 59 59 59 60 59 55 56 58 59 60 61 61
67 67 66 66 65 64 62 61 57 58 58 59 57 55 56 56 56 57 57 58 57 57 56 57 56 56 57 54 54 55 58 59 60
67 67 65 65 65 62 60 60 59 56 54 56 60 51 54 53 54 54 55 55 55 56 54 54 53 54 54 53 53 54 55 57 59
66 66 65 63 61 61 58 57 59 56 52 51 53 53 55 53 47 51 52 52 53 52 53 53 52 52 52 50 51 52 53 55 57
65 65 64 63 61 60 57 55 56 57 54 53 49 52 51 51 50 46 44 48 49 50 51 51 51 50 50 51 50 50 52 54 55

GFSFLT1_sfc_temp_066.txt.gz
Temp
77 77 77 76 76 77 75 76 76 76 76 75 75 74 73 73 82 82 79 79 76 77 77 75 76 76 76 75 75 76 76 76 76
77 76 76 76 76 75 76 75 75 75 75 75 74 73 72 82 82 81 80 79 77 77 76 76 76 76 75 75 75 75 75 74 74
76 75 75 75 75 75 75 75 75 75 75 74 73 71 72 79 81 81 81 76 77 77 76 75 75 74 74 74 74 74 74 74 74
75 75 75 75 75 75 75 74 74 74 74 73 72 70 71 82 82 82 80 74 76 75 74 74 74 73 73 73 73 72 72 72 72
74 73 74 74 74 74 74 74 74 73 73 72 71 69 70 82 81 83 80 75 75 75 74 74 73 72 72 72 71 71 71 71 71
76 73 71 73 73 73 73 73 73 71 70 70 69 68 83 82 83 83 73 75 74 74 73 73 72 71 71 71 70 70 70 70 70
80 73 70 72 72 72 73 72 71 70 81 78 69 81 81 82 81 81 73 74 74 73 72 71 71 70 70 70 70 69 69 69 68
80 79 78 78 70 78 76 75 79 79 81 80 81 81 81 82 81 74 71 73 73 72 71 70 70 70 69 69 69 68 68 68 67
81 81 80 79 80 80 80 81 80 79 79 80 80 80 80 81 81 75 69 72 72 71 71 70 69 69 69 68 68 67 67 66 66
81 80 80 80 80 80 79 79 79 79 79 79 78 77 78 77 79 81 67 70 71 71 70 70 69 69 68 67 67 66 66 65 65
80 79 78 79 79 80 80 79 78 77 78 77 77 77 76 76 76 79 74 68 69 70 70 69 69 69 68 67 67 65 65 65 64
79 80 78 77 80 79 79 78 78 77 76 76 76 76 76 75 74 75 76 71 66 68 69 69 68 68 68 67 66 65 65 64 64
79 78 79 79 78 78 77 76 75 75 74 74 74 74 73 74 74 73 74 74 73 67 67 67 66 66 66 66 66 65 64 64 63
79 79 79 80 76 76 76 75 75 72 72 72 72 72 71 71 72 72 71 71 71 72 64 64 64 64 65 64 64 64 63 63 63
78 79 79 79 75 74 74 72 73 73 72 71 69 69 70 70 70 70 70 70 68 69 68 65 64 61 62 62 62 62 62 62 62
77 77 78 78 76 74 74 72 69 67 71 68 66 66 67 67 68 69 69 67 67 68 67 67 67 63 58 57 59 59 60 61 61
76 75 76 76 74 74 73 71 67 68 68 66 67 62 63 65 66 67 67 67 67 65 65 66 64 64 64 60 55 56 58 59 60
75 74 74 73 74 73 72 70 66 64 64 68 67 60 60 62 64 63 64 64 63 64 63 62 62 63 63 57 55 54 55 57 59
73 73 74 72 71 71 70 68 68 67 61 63 64 62 66 62 57 60 61 62 62 61 60 60 59 59 60 54 52 52 53 55 57
67 70 71 71 70 69 69 64 65 66 65 61 59 61 60 61 57 60 54 55 57 59 58 59 59 57 57 57 53 50 52 54 55

GFSFLT1_sfc_temp_069.txt.gz
Temp
77 77 77 76 76 76 75 76 76 76 75 75 75 74 74 73 83 78 78 77 76 77 76 76 76 76 76 75 76 75 75 76 76
77 76 76 76 76 75 76 76 76 75 75 75 74 73 73 78 80 76 78 77 77 77 76 76 76 75 75 75 75 75 75 75 75
76 75 75 75 76 75 75 75 75 75 75 74 73 72 72 80 82 75 76 76 77 76 75 75 75 74 74 74 74 74 74 74 74
75 75 75 75 75 75 75 74 75 75 74 73 72 71 71 79 82 79 77 75 76 75 74 74 74 73 73 73 72 72 72 72 72
74 74 74 74 74 74 74 74 74 74 73 72 71 70 71 82 81 79 76 75 75 75 74 74 73 72 72 71 71 71 71 71 71
75 73 72 73 73 73 74 74 73 71 71 71 70 69 80 82 82 79 73 75 75 74 73 72 72 71 71 71 70 70 70 70 70
81 73 71 72 72 72 73 73 71 70 78 75 69 77 82 81 80 77 73 74 74 73 72 71 71 71 70 70 70 69 69 69 69
80 77 76 76 70 75 74 73 76 78 82 80 80 81 82 81 80 73 72 74 73 72 71 71 70 70 70 69 69 68 68 68 68
81 80 79 78 77 79 77 78 79 80 81 81 81 81 81 80 79 71 69 72 72 72 71 70 70 69 69 68 68 67 67 67 67
82 82 81 80 81 81 79 81 80 79 80 81 80 79 79 78 78 77 68 70 71 71 71 70 70 69 68 68 67 66 66 66 66
81 81 80 80 81 81 81 80 79 79 80 79 79 78 77 77 77 78 72 68 70 71 71 70 70 69 69 68 67 66 65 65 65
81 81 77 77 81 81 80 80 79 78 78 77 78 77 77 76 75 76 74 69 67 69 70 70 69 69 69 68 67 66 65 64 64
80 80 80 79 79 79 79 78 76 76 75 75 75 75 75 75 75 74 75 72 71 67 68 68 68 68 68 67 66 65 65 64 64
80 80 80 81 78 77 77 76 75 73 73 73 74 73 72 73 74 73 73 72 71 69 65 65 65 66 67 66 66 65 64 63 63
80 80 80 80 78 72 76 75 75 74 72 73 71 70 70 69 69 70 72 71 69 69 65 62 62 63 64 64 64 63 63 62 63
80 79 79 79 78 74 73 74 72 71 73 69 66 67 67 67 67 68 69 68 67 68 67 64 64 60 60 60 60 60 61 61 62
79 78 77 78 77 76 71 71 70 69 70 65 63 59 62 64 66 67 67 67 65 65 66 65 64 62 60 58 57 58 59 60 61
77 77 76 76 76 74 74 71 69 65 66 68 65 58 58 59 63 63 65 66 65 64 63 63 62 62 60 56 55 55 56 57 59
72 74 74 73 73 73 73 73 70 67 63 63 67 65 64 59 54 60 62 64 63 61 60 60 59 59 58 54 54 54 54 56 57
69 69 69 70 69 70 69 70 69 67 65 61 59 61 60 60 56 53 53 58 60 60 59 59 58 57 55 54 53 52 52 54 55

GFSFLT1_sfc_temp_072.txt.gz
Temp
77 77 76 77 76 76 76 76 76 75 75 75 75 74 74 73 74 72 74 71 77 77 76 76 76 76 76 76 76 76 76 76 75
76 76 76 76 76 76 76 76 76 75 75 75 74 74 73 74 73 72 70 72 77 77 76 76 76 75 75 75 75 75 75 75 75
75 76 75 76 76 76 76 76 75 75 74 74 73 73 72 73 74 73 71 75 77 76 75 75 74 74 74 74 74 74 74 73 74
75 75 75 75 75 75 75 75 75 75 74 73 72 72 71 71 73 75 69 74 76 75 75 74 74 73 73 72 72 72 72 72 72
73 73 73 74 74 74 74 74 74 74 73 72 71 71 70 70 71 72 69 75 75 74 74 73 73 72 72 71 71 71 71 71 71
70 71 72 72 73 73 74 74 73 71 70 70 70 69 68 73 73 69 73 75 75 74 73 72 72 71 71 71 70 70 70 70 70
73 69 70 73 72 72 73 73 71 69 66 65 68 65 67 70 69 67 73 75 74 73 72 71 71 71 71 70 70 69 69 69 69
68 64 66 65 67 67 69 67 66 66 67 66 66 68 68 69 67 69 72 74 74 72 72 71 70 70 70 69 69 68 68 68 68
68 67 66 66 66 66 65 65 66 68 70 68 68 69 68 68 65 65 70 72 73 72 72 71 70 70 69 69 68 68 67 67 67
69 69 69 68 68 67 67 67 70 69 69 70 70 69 68 68 65 62 67 70 72 72 72 71 70 69 69 68 67 67 67 66 66
70 69 68 68 69 69 69 68 68 68 68 68 69 68 67 67 66 62 63 68 70 71 71 71 70 70 69 68 67 66 66 66 65
71 69 68 68 69 70 69 69 68 67 68 66 67 66 65 66 66 63 61 64 67 69 71 71 70 70 69 68 67 66 65 65 64
70 69 68 69 68 68 66 66 65 64 64 63 63 64 64 64 64 64 63 61 63 66 69 70 70 69 69 69 67 66 65 65 64
70 69 69 70 68 67 67 65 64 62 61 63 61 61 61 63 66 63 63 61 60 59 65 66 66 67 68 68 67 66 64 64 64
70 69 69 70 67 66 65 64 63 62 61 67 63 59 60 60 60 61 64 61 60 58 57 56 58 64 67 67 67 66 64 63 63
70 70 68 69 67 66 66 64 63 60 61 59 56 56 59 59 58 59 59 60 61 58 56 55 54 56 64 64 65 64 63 63 62
71 69 69 67 66 65 66 66 64 61 60 56 53 50 53 56 59 57 59 58 58 59 57 55 54 53 52 54 61 61 61 62 62
68 67 67 66 66 64 65 64 64 63 58 58 55 50 50 51 55 57 56 57 55 56 57 57 56 53 51 55 56 58 59 60 60
67 66 66 65 64 64 62 64 63 61 59 56 62 56 55 51 47 53 55 56 56 54 54 54 54 53 49 53 53 56 56 57 59
66 67 63 66 66 65 65 62 63 63 60 58 53 56 52 52 49 45 49 52 53 54 55 54 53 53 49 47 52 55 54 56 56

GFSFLT1_sfc_temp_075.txt.gz
Temp
78 76 76 76 76 76 76 76 76 75 75 75 75 75 74 73 69 69 72 71 77 77 76 76 76 76 76 76 76 76 75 75 75
77 76 76 76 76 76 76 76 75 75 75 75 75 74 72 70 68 67 69 71 77 77 76 76 75 75 74 74 75 75 75 75 75
76 76 75 76 76 76 76 75 75 74 74 74 74 73 71 72 72 68 68 74 76 76 75 75 75 74 74 74 74 74 73 73 74
76 75 76 75 75 75 75 75 75 74 73 73 73 72 71 69 70 71 68 74 76 75 74 74 74 73 72 72 72 72 72 72 72
73 73 74 74 74 74 74 74 74 74 73 72 72 71 70 66 68 68 69 75 75 74 73 73 73 72 72 71 71 71 71 71 71
70 69 71 72 73 73 74 74 73 71 70 71 70 69 66 68 68 66 73 75 75 73 73 72 72 71 71 70 70 70 70 70 70
70 68 69 72 72 72 73 73 71 69 64 64 68 64 64 66 65 66 73 75 75 73 72 71 71 71 70 70 70 70 69 69 69
64 64 66 65 66 66 68 67 65 63 63 62 63 64 63 64 65 68 72 74 74 72 72 71 71 70 70 69 69 69 69 68 68
63 62 63 63 63 63 63 63 63 63 64 64 63 64 64 62 62 65 70 73 73 73 72 71 70 70 69 69 68 68 68 68 67
65 63 63 63 63 63 62 62 63 63 63 65 65 65 64 63 62 61 67 70 72 72 72 71 70 70 69 68 68 67 67 67 66
66 64 64 64 65 64 65 64 64 63 64 65 65 64 64 63 61 60 63 68 70 72 72 71 71 70 69 68 67 67 67 66 66
67 65 65 66 66 65 64 64 64 63 65 64 64 63 63 63 61 60 60 64 67 70 72 71 71 70 70 69 67 67 66 66 65
67 66 66 67 66 65 64 63 62 62 62 61 61 61 61 62 61 60 60 60 63 66 70 70 71 70 70 70 68 67 66 65 65
67 66 66 66 65 64 64 62 62 60 59 60 60 59 59 60 63 59 59 58 59 59 65 67 67 69 70 70 69 67 66 65 65
67 66 66 66 64 63 62 62 60 60 60 64 62 57 57 58 58 59 61 60 59 58 58 58 59 65 68 69 69 67 66 65 64
69 68 66 65 65 66 63 62 61 58 58 57 54 54 55 56 57 58 57 58 59 57 57 56 55 59 65 67 68 67 66 64 64
71 68 68 65 63 62 63 62 59 58 58 55 51 50 53 54 57 56 58 57 57 57 57 57 56 55 54 56 65 65 65 64 64
66 65 65 66 65 63 63 63 60 60 57 58 55 47 48 49 52 56 56 56 54 56 58 57 56 54 52 56 58 61 62 63 63
65 64 64 62 62 61 61 63 62 58 57 55 59 55 53 49 48 51 52 54 54 54 54 56 54 52 51 53 54 58 59 60 61
65 64 63 63 62 62 61 60 60 60 59 57 54 54 53 52 48 46 48 52 53 53 53 54 53 53 50 50 54 57 58 58 58

GFSFLT1_sfc_temp_078.txt.gz
Temp
77 77 76 76 76 76 76 76 75 75 75 76 75 75 73 71 68 68 72 72 77 77 76 77 76 76 76 77 76 75 75 76 76
76 76 75 75 76 76 76 76 75 75 75 75 75 74 72 67 66 67 70 71 77 76 76 75 75 75 75 75 75 75 75 75 75
76 76 75 76 76 76 76 75 75 74 74 74 74 72 72 69 67 66 67 74 77 76 75 75 74 74 74 74 74 73 73 74 74
76 75 75 76 76 76 75 75 75 74 74 73 73 71 70 66 66 69 67 74 76 75 74 74 73 73 73 73 72 73 73 73 73
74 73 74 75 75 74 74 74 74 74 73 73 72 70 69 65 66 66 68 75 75 74 73 73 72 72 71 71 71 71 71 72 72
68 69 71 73 73 73 74 74 73 72 70 71 71 68 65 64 65 65 73 75 74 73 73 72 72 71 71 71 71 71 71 71 71
69 67 70 72 72 72 73 73 71 69 63 63 68 63 63 64 64 65 73 75 74 73 72 71 71 71 70 70 70 70 70 70 70
64 63 66 66 66 66 68 67 65 62 61 61 61 62 62 62 63 67 72 74 74 73 72 71 71 70 70 70 70 69 69 69 69
61 62 63 63 63 63 63 63 63 62 62 61 61 61 61 61 62 64 70 73 74 73 72 71 71 70 70 69 69 68 68 68 68
61 62 62 62 62 62 61 62 61 61 61 62 62 62 62 61 61 62 66 70 72 73 72 71 71 70 70 69 68 68 68 67 67
63 62 62 61 62 62 61 61 61 61 61 62 62 62 61 61 60 60 63 68 70 72 72 72 71 71 70 69 68 68 67 67 66
65 64 61 62 62 62 61 61 61 61 62 61 62 61 60 60 60 59 61 64 67 70 72 72 71 71 70 69 68 67 67 66 66
65 64 63 63 62 62 61 61 60 59 59 60 60 60 60 60 59 59 59 60 62 66 70 71 71 71 71 70 69 68 67 66 66
67 65 64 64 63 62 63 60 60 58 58 59 59 58 58 59 61 58 58 59 59 59 65 67 68 69 70 71 70 69 67 66 66
67 64 64 64 63 62 60 60 59 59 59 62 60 57 56 56 56 57 59 57 58 59 59 60 61 66 69 70 70 69 67 66 65
67 65 64 63 65 66 62 60 60 57 57 56 54 54 54 55 54 55 55 57 59 59 60 59 57 61 66 68 69 69 68 66 65
67 65 65 64 62 61 61 61 58 58 56 56 52 54 53 54 56 54 56 55 56 57 59 58 57 57 57 59 66 68 68 67 65
65 64 63 62 63 63 62 61 60 61 56 55 55 48 49 48 52 52 53 53 52 53 55 55 56 56 56 58 60 63 65 65 65
65 64 63 62 61 61 61 62 61 57 57 55 58 53 52 50 48 49 51 54 55 54 53 54 54 54 52 55 56 59 59 62 63
64 64 62 62 61 60 60 61 60 61 61 56 53 52 53 53 51 52 47 49 50 52 52 51 49 49 47 49 55 58 56 54 55

GFSFLT1_sfc_temp_081.txt.gz
Temp
77 77 76 76 75 76 76 76 75 75 75 75 75 74 73 70 67 68 71 70 77 77 77 77 77 76 76 76 76 76 76 76 76
77 76 75 75 76 76 76 76 75 75 75 75 74 73 71 66 65 66 67 70 77 76 76 76 76 76 75 75 75 75 75 75 74
76 75 75 76 76 76 75 75 75 74 75 75 73 72 71 67 65 66 66 74 76 75 75 75 75 74 74 74 74 74 74 74 74
75 75 75 76 76 75 75 75 75 74 74 74 72 71 69 64 65 68 66 74 75 74 74 74 73 73 73 73 73 73 73 73 73
74 73 74 75 75 74 74 74 74 74 73 73 71 70 69 64 65 65 66 75 75 74 73 73 72 72 71 71 71 72 72 72 72
68 69 71 73 73 73 74 74 73 71 70 71 70 67 63 63 64 64 72 75 74 73 73 72 72 71 71 71 71 71 71 71 71
68 67 70 72 72 72 73 73 71 68 62 61 66 62 62 62 63 64 72 75 74 73 72 71 71 70 70 70 70 70 70 70 70
63 64 66 66 66 66 68 67 64 62 60 60 59 60 60 60 62 66 71 74 74 73 72 71 71 70 70 70 70 69 69 69 69
61 61 63 63 63 63 63 63 62 61 61 59 59 59 60 60 61 63 68 73 74 73 72 71 71 70 70 69 69 69 68 68 68
61 61 61 62 62 61 61 61 61 60 60 60 60 60 60 60 60 61 65 69 73 73 72 72 71 71 70 69 69 68 68 68 68
61 61 61 61 61 61 61 60 60 60 59 60 60 60 60 60 59 60 62 67 70 72 73 72 72 71 70 69 68 68 68 67 67
62 61 60 61 61 61 60 60 60 59 60 59 60 60 59 59 59 59 60 63 66 70 73 73 72 71 71 70 69 68 68 67 66
62 62 61 62 60 60 60 59 58 58 58 58 59 59 59 58 58 58 58 60 61 65 70 71 72 72 71 71 70 69 67 67 66
64 63 63 61 60 59 60 58 58 57 57 58 58 57 57 58 60 57 57 59 60 59 64 67 68 69 71 71 71 70 68 67 66
65 63 62 61 60 59 58 59 57 58 57 60 59 57 56 55 55 56 58 56 58 58 58 59 60 66 69 70 71 71 69 67 66
65 65 62 62 62 62 61 59 58 56 56 56 54 54 55 54 54 54 54 55 57 56 56 56 57 61 66 68 70 71 70 68 66
65 64 63 62 62 61 60 60 57 57 55 56 55 55 58 53 55 53 55 53 54 55 56 55 56 56 59 60 66 67 70 68 65
64 63 62 61 61 61 61 60 59 59 55 55 58 52 51 48 52 51 51 52 50 51 53 54 56 56 53 55 57 61 64 66 65
64 63 62 61 61 60 60 60 60 60 60 55 57 55 54 53 51 50 49 50 53 53 52 53 52 50 50 53 54 57 58 58 59
64 64 62 61 60 60 59 59 61 61 61 58 56 55 53 53 51 53 52 50 48 50 50 52 51 51 50 50 52 55 56 58 57

GFSFLT1_sfc_temp_084.txt.gz
Temp
77 77 76 75 75 76 76 76 75 75 75 75 75 74 72 69 67 67 71 69 77 77 77 77 77 76 76 76 76 76 76 76 76
77 76 75 75 75 76 76 75 75 75 75 75 74 73 70 66 65 65 67 69 77 76 76 76 76 77 75 75 75 75 75 75 74
76 75 75 75 76 75 76 75 75 75 75 74 74 72 70 66 65 65 66 74 75 75 75 74 74 74 74 74 74 75 75 75 74
75 75 75 76 75 75 75 75 74 74 74 73 72 71 69 64 64 67 65 74 75 75 74 73 73 73 73 73 73 73 73 73 73
74 73 74 75 75 74 74 74 74 73 73 72 71 70 68 64 64 64 65 75 75 74 73 73 72 72 71 71 72 72 72 72 72
69 69 71 73 73 73 73 73 73 71 69 70 69 67 62 62 63 64 71 75 74 73 72 72 72 71 71 71 71 71 71 71 71
68 67 70 72 72 72 73 73 71 66 61 61 64 61 61 61 62 63 71 74 74 73 72 71 71 70 70 70 70 70 70 70 70
64 65 66 66 66 65 67 66 64 62 59 59 59 60 59 59 61 65 70 74 74 73 72 71 71 70 70 70 70 69 69 69 69
61 63 63 64 64 63 63 62 62 61 60 58 58 59 59 59 60 62 67 72 75 73 72 71 71 70 70 69 69 69 69 68 68
60 61 61 62 62 61 61 61 61 60 59 59 59 59 59 59 59 60 64 68 72 74 73 72 71 71 70 69 69 68 68 68 68
60 60 60 60 61 61 60 60 60 60 58 59 59 59 59 59 59 59 61 66 69 72 73 73 72 71 71 70 69 68 68 67 67
61 60 60 60 60 61 60 59 59 58 59 58 59 59 58 58 58 58 59 62 65 69 73 73 73 72 71 71 70 68 68 67 67
61 60 60 60 60 60 59 59 58 57 57 57 58 58 58 58 57 57 57 59 61 65 69 71 73 72 72 72 71 69 68 67 66
62 61 61 60 59 59 59 58 58 57 57 57 57 57 57 57 59 57 57 57 59 59 63 66 68 70 72 72 72 71 69 67 66
63 61 61 60 58 57 57 58 57 57 57 59 58 56 56 55 55 56 58 56 57 58 58 58 60 65 69 71 72 72 70 68 67
64 62 61 60 59 60 58 57 57 56 55 55 54 54 55 55 54 54 54 55 56 56 57 56 56 58 66 68 70 71 71 69 67
63 63 61 60 60 59 58 58 56 56 55 55 54 55 59 54 54 52 54 53 54 55 55 55 55 55 56 59 66 68 68 66 65
62 62 62 60 61 60 59 59 58 57 55 55 58 52 52 52 56 55 51 51 50 51 53 56 57 56 56 59 59 61 62 63 63
63 63 61 61 60 60 60 59 59 59 59 55 57 56 56 53 52 51 49 49 52 53 50 51 53 52 53 55 56 58 60 61 62
63 63 61 60 59 59 59 58 58 58 58 56 54 53 53 53 52 53 54 52 48 47 47 49 51 51 50 51 54 58 59 61 61

GFSFLT1_sfc_temp_087.txt.gz
Temp
79 77 76 75 76 76 76 76 75 75 76 76 75 74 72 73 78 77 78 79 77 77 77 77 76 76 76 76 76 76 76 75 76
77 76 75 75 76 76 76 76 75 75 75 75 74 72 70 77 77 78 78 78 77 76 76 76 76 76 76 75 76 75 75 75 75
76 76 75 76 76 76 76 75 75 75 75 74 73 71 70 75 77 76 78 75 76 76 75 74 75 75 75 75 75 75 75 74 75
75 75 75 76 75 75 75 75 75 75 74 73 72 70 69 76 76 76 78 74 75 75 74 74 73 73 73 73 73 73 73 73 73
74 73 74 75 74 74 74 74 74 73 73 72 71 69 68 76 75 77 78 75 75 74 73 73 73 72 72 72 72 72 72 72 72
76 71 71 73 73 73 74 73 72 70 70 70 68 68 76 76 77 77 71 75 74 73 73 72 72 71 71 71 71 71 72 72 71
75 71 70 72 72 72 73 72 70 70 75 75 70 76 75 76 76 77 70 74 74 73 72 72 71 71 71 70 70 71 71 71 70
75 75 72 74 70 76 74 74 74 72 74 74 75 75 75 76 76 74 70 74 75 73 72 71 71 70 70 70 70 70 70 70 69
73 74 73 74 74 73 73 74 73 72 71 72 73 73 74 75 75 73 67 71 74 74 73 72 71 71 70 70 69 69 69 69 69
72 73 72 72 72 73 72 73 73 72 72 71 71 71 72 73 74 74 64 67 71 74 73 73 72 71 70 70 69 68 68 68 68
71 71 71 71 71 72 72 72 72 72 71 71 71 71 72 72 72 74 73 66 69 72 74 74 73 72 71 70 69 68 68 68 67
71 71 70 71 71 71 71 70 70 70 70 70 71 72 72 71 72 72 72 72 65 68 73 74 74 73 72 72 70 69 68 67 67
71 70 71 72 71 70 70 70 69 69 69 70 71 72 71 72 72 71 72 71 72 69 68 71 73 73 73 73 72 70 68 68 67
71 71 72 71 70 69 69 68 68 68 69 68 70 71 71 71 70 71 70 70 69 71 67 65 67 69 72 73 73 72 69 68 67
70 70 71 70 68 67 67 67 67 68 69 67 68 70 70 70 69 70 70 70 69 70 69 71 70 65 68 71 72 72 70 69 67
70 70 69 68 68 68 68 67 67 67 66 66 68 69 70 69 69 69 69 68 68 68 69 69 70 70 65 68 71 72 72 70 68
69 69 68 68 67 67 67 66 66 66 65 67 64 63 68 69 67 68 67 67 67 66 66 67 68 68 64 64 66 69 71 69 66
68 68 68 67 67 66 67 65 65 64 62 64 63 55 56 61 66 64 64 64 65 64 64 65 63 65 64 61 63 63 67 67 66
67 67 67 67 66 66 65 65 65 65 63 60 60 63 62 56 58 60 60 57 62 62 62 62 62 61 60 59 58 60 63 65 65
67 67 66 66 65 66 65 64 64 64 64 63 58 58 58 58 54 52 56 59 55 55 56 55 57 57 59 58 56 59 60 64 65

GFSFLT1_sfc_temp_090.txt.gz
Temp
78 76 76 76 76 76 76 76 76 76 76 75 75 74 74 76 84 83 82 82 77 77 76 77 77 76 76 76 76 75 75 75 75
77 76 75 75 76 76 76 76 75 75 75 75 74 73 72 84 83 83 82 80 76 76 76 75 76 76 76 76 75 75 75 75 75
76 75 75 76 76 76 76 75 75 75 75 74 73 72 73 81 82 82 81 76 76 75 75 74 74 74 74 74 74 74 74 74 74
76 75 75 76 76 75 75 75 75 74 74 73 72 70 70 83 82 83 82 74 75 75 74 74 73 73 73 73 73 73 73 73 73
74 73 74 75 74 74 74 74 74 74 73 72 71 70 70 83 82 82 79 75 75 74 73 73 73 72 72 72 72 72 72 72 72
78 73 72 73 73 74 74 74 72 71 70 70 70 69 84 84 83 84 72 75 74 74 73 72 72 71 71 71 71 72 72 72 71
83 74 70 72 72 72 73 72 71 71 83 80 71 84 84 84 83 83 72 74 74 73 72 72 71 71 71 71 71 71 71 71 70
82 82 77 76 71 79 77 77 81 79 83 82 84 84 84 85 84 79 71 73 75 73 72 72 71 71 70 70 70 70 70 70 69
83 83 82 81 81 79 80 82 81 80 80 82 82 82 83 83 83 80 69 71 74 74 73 72 71 71 70 70 69 69 69 69 69
83 83 83 82 82 82 81 81 81 80 80 81 80 80 80 81 82 82 67 68 71 73 74 73 72 71 70 70 69 69 68 68 68
81 81 80 81 81 82 81 81 80 80 80 80 80 80 80 80 80 81 80 67 68 71 74 74 73 72 72 71 69 69 68 68 68
79 80 80 80 81 81 80 79 79 79 80 79 80 80 81 80 80 80 81 79 65 68 72 74 74 73 73 72 70 69 69 68 67
79 79 79 81 80 79 79 79 78 78 78 78 79 79 80 80 81 80 80 79 80 70 69 71 72 73 73 73 72 70 69 68 67
80 80 80 80 79 78 78 78 77 76 76 76 78 78 79 79 79 79 80 79 77 79 70 66 67 69 72 73 73 72 70 68 68
79 80 80 80 78 77 76 75 76 75 76 75 75 78 78 79 79 80 80 79 77 77 77 77 74 65 68 71 73 73 71 69 68
80 80 79 79 77 77 77 75 73 74 75 73 74 75 78 78 79 80 79 78 76 76 76 76 77 76 66 68 70 72 72 70 68
79 78 77 78 76 75 75 73 72 73 75 71 71 67 74 77 78 78 77 76 76 75 74 74 74 74 74 70 66 67 70 71 68
73 75 76 75 74 73 74 73 70 70 71 71 69 61 62 68 73 72 74 73 73 70 69 71 70 70 70 66 63 63 65 69 69
73 74 74 74 73 72 72 72 71 70 69 68 69 71 68 61 57 66 70 68 67 64 68 68 68 67 67 62 59 60 62 66 69
72 72 72 72 72 72 72 71 71 72 69 69 67 64 62 61 57 55 64 65 63 62 63 61 63 63 64 64 59 58 61 64 66

GFSFLT1_sfc_temp_093.txt.gz
Temp
77 76 76 76 76 76 76 76 76 76 75 75 75 75 75 76 83 82 79 78 77 77 76 76 76 76 76 76 76 75 75 75 75
76 76 75 75 76 76 76 76 76 75 75 75 74 74 74 84 83 81 79 77 76 76 76 75 75 75 75 75 75 75 75 75 74
76 75 75 76 76 76 75 75 75 75 74 74 73 73 73 82 82 80 77 75 76 75 75 74 74 74 74 74 74 74 74 74 73
75 75 75 76 75 75 75 75 75 74 74 73 72 72 72 82 82 83 78 74 75 75 74 74 73 73 73 73 73 73 73 73 73
74 73 74 75 74 74 74 74 74 73 73 72 72 71 72 83 82 80 76 75 75 74 74 73 73 72 72 72 72 72 72 72 72
76 73 72 73 73 74 74 73 73 71 71 71 71 70 83 83 82 79 73 75 75 74 73 72 72 72 71 71 72 72 72 72 72
83 74 70 72 72 72 73 72 71 71 80 76 71 79 83 83 81 78 73 75 74 73 72 72 72 71 71 71 71 71 71 71 71
82 78 74 73 70 76 75 74 78 81 83 82 83 83 84 84 82 74 72 73 75 73 72 72 71 71 71 70 70 70 70 70 70
84 83 79 77 78 76 78 82 82 80 81 83 83 83 83 82 82 74 70 71 73 74 73 72 71 71 70 70 70 69 69 69 69
84 84 83 83 83 81 81 82 82 81 82 81 81 81 81 82 81 81 68 69 71 73 74 73 72 72 71 70 69 69 69 69 68
83 83 82 83 83 83 82 81 81 80 81 81 81 81 81 81 80 80 77 68 69 71 73 74 73 73 72 71 69 69 69 68 68
82 82 81 81 83 82 81 81 80 80 80 79 81 81 82 80 80 80 80 75 66 69 72 74 74 73 73 72 71 70 69 68 68
81 80 80 82 81 80 79 79 78 78 78 78 79 79 79 80 81 80 80 78 79 68 69 71 73 73 73 74 73 71 69 69 68
81 80 81 82 80 79 78 78 78 77 76 76 77 78 77 78 80 79 79 79 77 77 68 67 68 69 72 73 74 73 70 69 68
80 81 81 81 78 77 77 77 77 76 76 76 75 76 77 77 78 79 80 80 78 77 76 72 70 65 68 71 73 74 71 70 69
80 80 81 80 78 78 78 76 74 73 74 72 72 73 76 76 77 78 78 79 77 77 76 75 75 72 67 68 70 71 73 72 69
79 79 78 79 78 77 77 75 72 72 73 69 70 65 72 74 75 76 77 77 76 75 74 74 74 73 72 66 66 66 69 71 71
76 77 78 77 77 74 74 73 71 69 72 72 68 62 61 67 71 71 72 73 72 70 70 69 69 69 69 66 65 62 64 67 69
69 69 72 74 73 72 72 73 72 70 67 68 70 70 69 62 61 67 68 68 68 66 66 66 67 66 64 62 58 59 61 64 67
68 69 69 69 71 71 72 71 71 71 69 69 66 66 66 64 59 57 62 65 64 64 63 63 63 62 61 59 57 57 60 63 65

GFSFLT1_sfc_temp_096.txt.gz
Temp
77 76 76 76 76 76 76 76 76 75 75 76 76 76 75 75 73 72 73 71 77 76 76 76 76 76 76 76 76 75 75 75 74
76 75 75 75 75 76 76 76 75 75 75 75 75 74 73 75 72 70 69 71 76 76 75 75 75 75 75 75 75 75 74 74 74
76 75 75 75 76 75 76 75 75 74 74 74 74 73 72 75 72 69 68 74 76 75 75 74 74 74 74 74 74 74 74 73 73
75 75 75 75 75 75 75 75 75 74 74 73 73 72 71 73 72 74 68 74 75 75 74 74 74 73 73 73 73 73 73 73 73
73 73 74 74 74 74 74 74 74 73 73 72 72 71 70 70 72 70 69 74 75 74 74 73 73 73 72 72 72 72 72 72 73
71 71 71 72 73 73 73 73 72 71 70 71 71 70 69 72 71 69 73 75 75 74 73 73 72 72 72 72 72 72 72 72 71
76 69 70 72 72 72 73 72 71 70 67 65 69 67 69 72 70 68 73 75 74 73 73 72 72 72 71 71 71 71 71 71 70
73 69 71 68 68 68 69 68 68 67 69 68 68 70 70 69 70 70 72 74 74 73 73 72 71 71 71 71 70 70 70 70 70
71 70 68 68 69 71 69 68 69 72 72 69 70 70 69 70 69 67 70 72 74 74 73 72 71 71 71 70 70 69 69 69 69
71 72 70 69 70 70 68 69 71 71 71 71 71 70 69 70 69 65 66 70 72 73 74 73 72 71 71 70 70 69 69 69 69
72 71 72 71 73 71 70 70 70 69 70 70 71 70 69 70 70 67 65 68 70 72 74 74 73 73 72 71 70 69 69 69 68
72 71 70 70 71 72 71 70 69 68 70 68 69 69 69 69 70 70 68 66 66 70 73 74 74 74 73 73 71 70 69 69 68
71 69 69 71 70 70 68 68 67 66 66 66 67 68 69 69 69 70 70 69 69 66 70 72 73 73 73 74 73 71 70 69 68
71 70 70 71 69 68 68 67 66 65 65 67 66 66 66 68 72 69 70 69 69 66 66 67 68 69 72 73 73 73 71 69 69
72 71 71 70 68 67 66 66 66 65 65 70 68 65 66 67 67 68 71 70 69 68 67 63 63 65 69 71 73 74 71 70 69
73 71 71 71 69 68 68 67 65 63 64 62 62 63 66 66 67 67 68 69 69 68 66 64 64 63 66 68 70 71 71 72 70
73 71 70 71 69 69 68 67 64 65 65 61 60 58 62 64 67 66 67 65 65 65 65 63 63 63 62 62 65 65 67 69 70
70 70 67 68 68 67 67 67 65 62 63 64 61 56 55 60 62 63 64 63 60 60 61 62 62 61 61 60 58 60 62 65 68
67 67 67 66 66 65 64 65 63 63 61 62 64 62 61 56 55 59 60 60 60 58 57 57 58 57 56 56 56 58 61 65 67
66 66 66 66 66 66 66 64 64 64 62 62 60 60 59 59 56 54 55 56 55 55 55 55 53 55 53 50 53 57 60 63 65

GFSFLT1_sfc_temp_099.txt.gz
Temp
77 76 76 75 75 76 76 76 76 75 75 76 77 77 74 72 68 66 70 69 76 76 76 76 76 76 76 75 75 75 75 74 74
76 75 75 75 76 76 76 76 75 75 75 76 76 75 72 69 65 65 66 70 76 76 75 75 75 75 75 75 75 74 74 74 74
75 75 75 75 76 76 75 75 75 75 75 75 75 73 72 70 67 66 66 74 76 75 75 74 74 74 74 74 74 74 74 74 74
75 75 75 75 75 75 75 75 74 74 74 74 73 72 70 68 68 70 67 74 75 75 74 74 74 73 73 73 73 73 73 73 73
73 72 73 74 74 74 74 74 74 73 73 73 72 71 69 66 67 67 68 74 75 74 74 73 73 73 73 72 73 72 72 73 73
70 69 71 72 73 73 73 73 72 71 71 71 71 69 67 66 67 67 73 75 75 74 73 73 72 72 72 72 72 72 72 71 72
71 68 70 72 71 72 73 72 71 69 65 64 69 66 66 66 66 67 73 75 74 73 73 72 72 72 71 71 71 71 71 71 71
68 66 66 66 66 66 68 67 66 64 64 65 65 66 66 65 66 69 72 74 74 73 73 72 72 71 71 71 71 70 70 70 70
70 66 66 66 66 65 65 64 65 65 66 65 65 66 66 65 65 66 70 73 75 74 73 72 71 71 71 71 70 70 69 69 69
68 66 66 66 66 66 65 65 66 66 68 68 68 67 66 66 65 63 66 70 73 74 74 73 72 71 71 70 70 69 69 69 69
66 68 67 66 67 67 66 66 66 67 66 67 68 68 67 67 65 64 64 68 70 73 74 74 73 72 72 71 70 69 69 69 68
67 68 66 66 68 68 66 66 66 65 66 66 66 66 65 66 67 66 64 65 66 70 74 74 74 73 73 72 71 70 69 69 68
68 67 67 68 67 67 66 65 64 64 63 64 65 64 65 65 66 67 66 65 66 66 70 72 73 73 73 74 73 71 70 69 68
69 67 67 68 66 66 66 64 63 62 62 63 63 63 64 66 69 66 67 66 65 64 66 67 68 69 72 73 74 73 71 70 69
69 68 68 67 65 65 64 64 63 63 63 67 66 63 64 64 64 66 68 67 67 65 65 62 63 65 69 71 73 73 72 70 69
70 68 68 67 66 66 66 65 64 62 62 62 61 63 64 64 64 65 65 66 69 65 63 61 61 62 66 68 69 69 70 71 70
70 69 68 68 67 66 66 65 62 63 62 60 58 56 60 61 63 63 64 62 65 62 61 60 59 58 58 59 62 64 66 67 69
68 68 68 67 68 66 66 65 64 61 61 61 60 54 54 56 60 61 62 62 59 57 58 58 60 56 54 55 56 60 63 66 68
67 66 66 65 66 65 64 65 64 62 60 61 62 60 59 57 57 59 59 59 56 54 54 54 55 53 52 54 56 58 61 65 67
66 65 65 65 65 65 64 64 63 63 62 61 60 59 59 60 57 55 56 56 52 52 51 50 50 51 50 50 53 57 60 63 65

GFSFLT1_sfc_temp_102.txt.gz
Temp
77 76 75 75 75 76 76 76 76 76 76 77 76 74 73 69 65 65 69 68 76 76 76 76 76 75 76 76 75 74 74 74 74
76 75 75 75 75 76 76 76 75 75 76 76 75 73 70 65 63 64 66 69 76 76 75 75 75 75 75 74 74 74 74 74 74
75 75 75 75 76 76 76 75 75 75 75 75 74 72 70 67 64 65 66 74 76 75 75 74 74 74 74 74 74 74 74 74 74
75 75 75 75 75 75 75 75 75 75 75 74 72 71 69 65 65 68 66 74 75 75 74 74 74 74 73 73 73 73 73 73 73
73 72 73 74 74 74 74 74 74 74 74 73 71 70 68 64 65 65 68 74 75 74 74 73 73 73 73 72 72 72 73 73 73
68 69 71 72 73 73 73 73 73 72 71 72 70 68 65 64 65 65 72 74 74 74 73 73 73 72 72 72 72 72 72 72 72
69 67 69 71 71 72 73 72 71 68 64 64 67 65 64 64 64 65 73 74 74 73 72 72 72 72 71 71 71 71 71 71 71
65 64 65 65 66 66 67 66 64 64 63 64 63 64 63 63 64 68 72 74 74 73 72 72 71 71 71 71 71 70 70 70 70
64 64 64 64 64 63 63 62 63 63 64 62 63 63 63 62 63 65 70 73 74 74 73 72 72 71 71 71 70 70 70 69 69
65 64 64 64 64 64 63 63 64 63 63 64 64 65 63 63 63 63 66 70 73 74 73 73 72 72 71 70 70 70 69 69 69
66 65 65 64 64 65 64 64 64 64 64 65 65 65 64 63 63 62 63 67 70 73 74 74 73 72 72 71 70 69 69 69 69
66 66 64 65 65 65 64 64 63 62 64 63 64 64 63 64 64 63 62 64 66 70 74 74 74 73 73 72 71 70 69 69 68
64 65 65 65 65 64 63 63 62 62 62 61 62 63 63 63 63 64 63 63 65 66 70 72 73 74 73 73 73 71 70 69 69
66 65 65 66 64 64 64 62 62 61 60 61 62 61 62 63 66 64 64 64 64 63 65 66 68 70 72 73 73 72 71 69 69
66 66 66 65 64 63 63 63 61 61 61 65 64 61 62 62 62 64 66 65 65 64 63 62 62 65 69 71 72 73 72 70 69
68 66 66 65 64 64 64 63 63 61 61 61 60 60 62 62 61 62 62 64 66 66 62 60 59 60 65 67 67 68 69 70 70
68 67 66 66 65 65 65 64 62 62 62 60 57 56 59 60 61 61 62 61 63 63 61 58 57 56 56 58 61 63 66 68 69
68 66 66 66 66 64 63 63 62 61 60 60 59 54 54 56 58 57 58 59 58 59 58 56 56 57 52 54 55 60 63 66 68
66 66 66 65 65 64 64 64 63 61 60 60 61 60 59 57 56 59 58 58 57 55 54 51 53 51 51 54 56 58 60 64 66
65 65 65 64 64 64 64 63 63 62 61 61 59 59 59 59 56 55 54 55 54 52 53 53 51 50 50 50 53 57 59 62 65

GFSFLT1_sfc_temp_105.txt.gz
Temp
77 76 76 75 75 76 76 76 76 76 76 75 75 74 72 68 63 64 69 68 77 76 76 76 76 76 75 75 74 74 75 75 75
76 75 75 75 75 76 76 76 76 76 75 75 74 72 69 64 62 63 65 68 76 76 75 75 75 75 74 74 74 74 74 74 74
75 75 75 75 76 76 76 75 76 75 75 74 73 71 69 66 63 64 65 73 75 75 75 74 74 74 74 74 74 74 74 74 74
75 75 75 75 75 75 75 75 75 75 74 74 72 70 68 63 64 67 65 74 75 75 74 74 74 74 73 73 73 73 73 74 74
73 72 73 74 74 74 74 74 75 74 73 72 71 69 68 63 64 64 67 74 75 74 74 73 73 73 73 72 72 73 73 73 73
68 69 71 72 73 73 73 74 73 72 71 71 70 68 63 62 63 64 72 74 74 74 73 73 73 72 72 72 72 72 72 72 72
68 67 69 71 71 72 73 72 71 67 63 63 66 63 62 62 63 64 72 74 74 73 72 72 72 72 71 71 71 71 71 71 71
64 64 65 65 66 65 66 65 63 63 62 62 61 62 61 61 63 66 72 74 74 73 72 72 71 71 71 71 71 70 70 70 70
62 62 63 62 62 62 61 61 61 62 62 61 61 61 61 61 62 64 69 73 74 73 72 72 71 71 71 71 70 70 70 69 69
63 63 62 62 62 62 61 61 62 62 62 62 62 62 61 61 62 62 65 70 73 73 73 72 72 71 71 70 70 69 69 69 69
64 63 63 63 63 63 63 62 63 62 62 62 62 62 61 61 62 61 62 67 70 73 74 73 73 72 72 71 70 70 69 69 69
65 64 63 63 63 64 63 63 62 61 62 61 62 62 61 61 61 61 61 63 65 69 73 74 73 73 73 72 71 70 69 69 69
64 64 63 64 64 63 63 62 61 60 60 60 61 61 61 61 61 62 62 62 64 65 69 71 73 73 73 73 72 71 70 69 69
65 64 64 64 63 62 62 61 61 60 60 61 60 60 60 61 64 61 62 62 62 62 65 66 67 69 72 73 73 73 71 70 69
65 64 64 64 62 61 61 61 60 60 60 63 63 61 61 61 60 61 64 63 63 62 64 61 62 64 67 69 71 72 71 70 69
66 65 64 63 63 62 62 61 61 60 60 60 61 61 62 60 60 60 61 62 63 64 65 63 61 60 64 66 67 68 69 69 70
66 65 64 63 63 63 62 62 61 63 61 60 57 55 58 59 58 59 60 58 60 61 61 58 59 58 55 57 61 63 66 68 69
68 67 65 64 63 62 62 63 63 61 60 61 60 54 54 55 56 56 56 56 56 57 56 57 57 56 53 53 55 60 62 66 68
67 66 65 65 64 63 63 64 62 61 60 60 61 60 59 56 55 56 56 56 56 55 56 55 55 54 53 53 56 58 60 64 66
66 65 64 64 64 64 64 63 63 62 61 60 59 59 59 59 57 54 54 54 53 54 54 53 52 52 52 50 53 58 60 62 65

GFSFLT1_sfc_temp_108.txt.gz
Temp
77 77 76 76 76 76 76 76 76 76 75 75 75 73 71 68 63 63 68 67 76 76 76 75 75 75 75 75 75 75 75 75 75
76 75 75 75 76 76 76 76 76 75 75 75 74 72 69 62 62 63 64 68 76 76 75 75 75 75 75 75 75 75 75 75 75
75 75 75 75 76 76 76 76 76 75 75 74 72 71 69 65 62 63 65 73 76 75 75 74 74 74 74 74 74 74 74 74 74
75 75 75 76 75 75 75 75 75 75 74 73 71 69 68 62 63 66 64 74 75 75 74 74 74 74 74 74 74 74 74 74 74
74 73 74 75 74 74 74 75 74 74 73 72 70 68 67 62 63 64 66 74 75 74 74 74 73 73 73 73 73 73 73 73 73
68 69 71 72 73 73 74 74 73 71 70 70 69 66 62 62 62 63 72 74 74 74 73 73 73 72 72 72 72 72 72 72 72
67 67 69 71 71 72 73 72 70 66 62 62 65 62 61 62 62 63 72 74 74 73 73 72 72 72 72 72 71 71 71 71 71
64 64 65 65 65 65 65 63 62 61 61 61 61 61 61 61 62 65 71 74 74 73 72 72 72 71 71 71 71 71 70 70 70
62 62 62 62 62 62 61 60 61 61 61 60 61 60 60 60 61 63 68 73 74 73 73 72 72 71 71 71 70 70 70 70 70
61 61 61 61 61 60 60 60 61 60 61 61 61 61 60 60 61 61 65 69 72 73 73 72 72 72 71 71 70 70 69 69 69
62 61 61 61 62 62 61 61 61 62 62 62 61 60 60 60 60 61 61 66 70 72 74 73 73 72 72 71 70 70 69 69 69
63 62 62 62 62 62 62 62 62 61 62 61 61 61 60 60 60 60 60 62 65 69 73 74 73 73 72 72 71 70 70 69 69
64 63 63 63 63 62 62 61 60 59 59 59 60 60 60 60 60 61 61 61 62 65 69 71 72 73 73 73 72 71 70 70 69
65 64 63 63 63 62 62 60 60 59 59 60 60 60 60 61 63 61 61 61 61 61 64 65 67 69 71 72 72 73 71 70 69
64 63 63 63 62 61 61 60 59 60 60 62 62 60 60 60 59 60 62 61 62 61 63 64 63 64 68 69 70 71 71 70 69
64 64 63 62 62 63 61 60 60 58 59 59 60 61 62 59 58 58 59 60 61 61 63 63 61 60 63 65 67 68 69 69 69
66 64 62 62 61 61 61 61 59 60 59 59 58 57 59 58 57 57 59 57 58 59 60 60 57 58 56 57 61 64 66 68 69
65 64 63 62 62 61 60 60 61 59 59 61 59 55 55 56 58 56 57 57 56 56 57 57 57 57 53 55 56 60 62 66 68
66 66 65 63 62 62 62 62 62 61 59 60 60 60 59 56 55 56 55 56 56 55 55 55 55 55 53 55 57 58 60 63 66
65 65 64 63 63 64 64 63 62 62 61 60 59 59 59 59 57 54 54 54 54 54 54 53 53 53 51 51 55 59 61 63 65

GFSFLT1_sfc_temp_111.txt.gz
Temp
78 77 77 76 76 76 77 76 76 75 75 75 74 73 71 72 77 77 77 79 77 77 76 75 76 76 76 76 76 76 75 75 75
77 76 76 75 76 76 76 76 75 75 75 75 73 71 69 76 76 77 77 78 76 76 76 76 76 75 75 75 75 75 75 75 75
76 75 75 76 76 76 76 76 75 75 74 74 72 70 70 74 76 76 77 75 76 76 75 75 75 75 75 75 75 75 75 75 75
75 75 75 76 75 75 75 75 75 75 74 73 71 69 68 75 76 76 78 74 76 75 75 74 74 74 74 74 74 74 74 74 74
74 73 74 75 74 74 74 75 75 74 73 72 70 68 68 76 75 76 77 75 75 75 74 74 74 73 73 73 73 73 74 74 74
76 72 71 73 73 74 74 73 72 71 70 70 68 68 75 76 75 77 73 75 75 74 74 73 73 73 72 72 72 73 73 73 73
76 71 70 72 72 72 73 72 70 70 75 75 69 76 75 76 75 76 73 74 74 73 73 72 72 72 72 72 72 72 72 72 72
75 74 74 74 69 75 74 73 74 73 75 74 75 75 75 76 76 73 72 74 74 73 73 72 72 72 72 71 71 71 71 71 71
71 72 72 72 73 72 72 73 73 73 73 75 75 75 75 76 76 74 68 73 74 73 73 72 72 72 71 71 71 70 70 70 70
71 71 71 71 72 73 72 73 73 73 74 74 74 73 74 73 74 76 65 69 73 73 73 73 72 72 71 71 70 70 70 70 69
70 69 69 70 71 71 72 72 73 73 74 73 73 74 73 73 73 75 74 66 70 72 74 73 73 72 72 71 70 70 70 69 69
70 70 69 70 71 71 71 71 71 72 72 73 73 74 74 73 73 73 74 73 65 69 73 73 73 73 73 73 72 71 70 70 69
70 70 70 71 71 71 70 70 70 71 71 72 74 74 72 73 72 72 74 73 74 69 69 71 72 73 73 73 73 72 71 70 70
70 70 71 70 69 70 70 69 70 69 70 70 71 72 71 71 71 73 72 72 72 74 68 66 67 69 71 72 73 73 72 71 70
71 70 70 70 69 69 68 69 68 70 69 68 69 70 70 70 69 72 72 73 72 73 72 70 70 65 69 70 72 72 72 71 70
70 70 70 69 69 69 69 68 68 67 68 68 69 69 68 68 64 67 71 71 72 72 72 72 73 70 65 67 69 70 70 70 70
70 69 68 68 68 67 68 68 66 67 67 66 63 63 64 62 62 63 67 67 67 66 67 66 63 61 66 65 63 65 67 69 69
67 68 67 67 67 67 67 66 67 65 64 65 64 58 56 58 59 58 59 60 60 61 60 61 60 60 58 59 60 61 64 67 68
67 67 67 66 65 65 65 65 64 62 62 63 63 64 64 57 58 58 57 58 58 57 57 57 57 57 55 55 57 59 60 64 67
67 67 67 65 64 64 63 62 63 64 64 64 62 62 61 60 58 55 57 56 55 58 55 55 54 53 53 53 57 59 61 64 66

GFSFLT1_sfc_temp_114.txt.gz
Temp
79 78 76 76 76 76 76 76 75 75 75 75 74 73 74 77 83 82 81 81 77 77 76 76 76 76 76 76 76 76 76 76 76
78 76 76 76 76 76 76 76 75 75 75 74 73 72 73 83 83 83 81 79 77 77 76 76 76 76 76 76 76 76 75 75 75
77 76 75 76 76 76 76 76 75 75 74 73 72 72 74 81 82 81 80 76 76 76 75 75 75 75 75 75 75 75 75 75 75
76 75 75 76 76 75 75 75 75 74 73 72 71 70 71 82 82 83 81 74 76 75 75 75 75 74 74 74 74 74 75 75 74
74 73 74 75 75 75 74 75 74 74 72 71 70 69 70 83 82 82 79 75 75 75 74 74 74 74 73 73 73 74 74 74 74
78 74 72 73 73 74 74 74 73 71 70 70 69 69 83 83 83 82 73 75 75 74 74 73 73 73 73 73 73 73 73 73 73
83 74 70 72 72 72 73 72 71 72 81 78 71 84 83 83 82 80 73 75 74 74 73 73 72 72 72 72 72 72 72 72 72
81 75 75 78 72 79 77 76 82 82 83 82 84 84 84 84 82 75 73 74 74 73 73 72 72 72 72 72 71 71 71 71 71
80 76 78 77 82 81 81 82 82 81 82 83 83 83 83 84 83 76 69 73 74 74 73 72 72 72 72 71 71 70 70 70 70
80 80 80 81 82 81 81 81 81 81 82 82 82 82 82 82 83 84 67 70 73 74 73 73 72 72 72 71 70 70 70 70 70
80 80 80 80 81 81 81 81 80 80 82 81 81 81 81 82 81 83 79 67 70 73 74 74 73 73 72 72 71 70 70 70 69
79 79 78 79 81 80 80 80 81 81 81 80 81 81 82 81 80 81 82 78 65 69 73 73 73 73 73 73 72 71 70 70 70
78 78 78 79 79 80 79 79 78 79 79 79 79 80 80 81 81 80 81 79 81 70 69 71 73 73 74 74 73 72 71 70 70
79 78 78 79 78 77 77 76 78 76 76 77 78 79 78 78 79 79 79 80 79 80 69 67 68 70 72 74 74 74 73 71 70
78 78 78 78 77 76 76 75 76 77 77 75 75 78 77 77 77 78 79 79 78 79 79 78 74 66 69 71 72 73 73 72 71
77 78 77 77 76 76 76 75 74 73 74 74 76 76 76 75 75 76 74 75 76 77 79 79 76 74 66 69 70 71 71 71 70
77 76 76 76 75 75 74 73 70 74 76 73 72 70 71 73 72 71 71 69 70 72 67 70 72 67 68 67 62 65 68 69 70
74 75 74 74 73 71 73 74 73 72 71 70 70 66 66 69 70 68 64 65 67 64 63 63 61 61 60 60 60 60 62 66 69
72 70 71 72 72 71 71 72 70 64 63 67 69 70 69 65 64 68 67 65 62 59 60 58 61 59 57 56 55 57 60 63 67
71 71 73 71 70 66 64 63 64 66 67 67 66 65 66 66 61 56 58 58 57 58 62 58 56 56 56 55 55 58 60 64 66

GFSFLT1_sfc_temp_117.txt.gz
Temp
79 78 76 76 76 76 76 76 75 75 75 75 75 76 76 77 82 80 79 78 77 77 76 76 76 76 76 76 76 76 76 75 76
78 76 76 76 76 76 76 76 75 75 74 74 74 74 74 83 82 80 78 77 77 77 76 76 76 76 76 76 76 76 75 75 76
76 76 76 76 76 76 76 75 75 74 74 74 73 73 73 82 81 79 77 75 76 76 76 75 75 76 75 75 75 75 75 75 75
76 75 75 76 76 75 75 75 75 74 73 72 72 72 73 82 82 80 77 74 76 76 75 75 75 75 74 75 75 75 75 74 75
74 73 74 75 75 74 74 74 74 73 72 71 71 71 72 82 81 79 76 75 76 75 74 74 74 74 74 74 74 74 74 74 74
76 73 71 73 74 74 74 74 73 71 70 70 70 69 83 83 81 77 73 75 75 74 74 73 73 73 73 73 73 73 73 73 73
79 72 70 72 72 73 73 72 71 72 78 76 71 81 84 83 81 76 73 75 75 74 73 73 73 72 72 72 72 72 72 72 72
76 73 76 76 71 77 75 74 78 82 83 81 84 84 84 83 81 74 73 74 74 74 73 72 72 72 72 72 72 71 71 71 71
75 76 75 78 80 79 79 80 82 82 83 84 84 84 83 83 82 73 71 73 74 74 73 72 72 72 72 71 71 71 71 70 70
76 75 76 80 82 81 81 82 81 82 83 83 83 82 82 82 81 77 68 71 73 74 73 73 73 72 72 71 71 70 70 70 70
78 75 78 81 82 82 81 81 81 81 82 82 82 81 81 82 81 81 73 69 70 73 74 74 73 73 72 72 71 70 70 70 70
81 81 81 81 82 82 81 81 81 80 81 80 81 81 82 81 80 80 80 72 66 70 73 74 74 73 73 73 72 71 71 70 70
80 80 80 81 81 80 79 79 77 78 77 78 78 79 79 80 81 80 80 79 79 69 70 71 73 73 74 74 74 73 71 71 70
80 80 80 80 79 79 78 77 78 76 76 76 77 77 77 78 79 80 80 79 78 79 67 67 68 70 72 74 74 74 72 71 71
79 79 79 79 77 77 76 76 77 76 76 76 76 76 76 78 77 78 79 79 78 77 77 72 70 66 69 71 72 72 73 73 70
79 79 78 78 76 77 77 76 74 73 75 73 73 75 77 76 76 77 77 77 76 77 76 74 73 69 67 68 68 70 71 71 71
78 78 77 77 76 75 75 75 72 72 74 71 71 67 70 73 74 73 72 72 69 67 66 67 69 69 66 61 62 63 65 69 70
77 76 76 76 76 74 74 73 72 70 73 73 69 65 63 68 70 69 67 65 66 64 63 64 63 61 59 60 59 59 60 62 67
75 74 74 74 72 72 71 73 73 70 64 67 69 70 69 62 62 68 68 68 66 64 62 60 60 59 57 56 56 57 58 62 65
72 72 70 69 71 72 71 69 66 66 66 67 67 66 66 67 62 60 60 61 63 63 59 59 56 56 56 56 57 57 60 62 64

GFSFLT1_sfc_temp_120.txt.gz
Temp
79 78 77 76 76 76 76 76 76 76 75 76 77 76 75 75 72 71 73 71 77 77 76 76 76 77 76 76 76 76 75 76 76
77 76 76 76 76 76 76 75 75 74 75 76 75 75 74 74 70 69 69 71 77 77 76 76 76 76 76 76 76 76 76 76 76
76 75 75 75 76 75 75 75 75 74 75 75 74 73 73 75 71 69 68 74 76 76 76 76 76 75 75 75 75 75 75 76 75
76 75 75 75 75 75 75 75 74 74 74 73 73 72 72 71 72 73 68 74 76 76 75 75 75 75 75 75 75 75 75 75 74
74 73 74 74 74 74 74 74 74 73 72 72 72 71 71 71 71 69 69 75 76 75 75 74 74 74 74 74 74 74 74 74 75
72 71 71 73 73 73 74 73 72 71 70 71 70 69 70 71 70 68 73 75 75 74 74 74 73 73 73 73 73 73 73 73 73
72 69 70 72 72 72 73 72 71 70 66 65 68 66 71 70 69 67 73 75 75 74 73 73 73 73 72 72 72 72 72 72 72
70 68 69 68 68 69 69 67 67 67 69 69 68 71 71 70 69 69 72 74 74 74 73 73 72 72 72 72 72 72 71 71 71
70 70 68 67 68 67 66 66 68 71 72 71 72 72 71 70 69 67 70 73 74 74 73 73 72 72 72 72 71 71 71 71 70
73 70 71 69 69 69 68 68 70 70 71 73 73 73 72 72 70 66 67 71 73 74 73 73 73 72 72 71 71 71 70 70 70
73 71 69 69 72 71 70 70 70 69 70 71 72 72 71 72 71 67 65 69 71 73 74 74 73 73 73 72 71 71 70 70 70
72 73 70 70 75 72 71 70 70 69 71 70 71 71 71 71 71 69 66 67 67 70 73 74 74 73 73 73 72 71 71 70 70
72 74 73 74 71 70 69 68 67 67 68 68 69 69 70 70 69 71 68 67 69 67 70 71 72 73 74 74 74 73 72 71 70
76 75 72 71 69 69 69 66 67 66 67 68 68 68 67 69 72 69 69 69 69 66 66 67 68 69 71 73 74 73 72 71 70
71 70 70 70 68 67 67 67 67 68 67 71 69 66 67 67 67 68 71 69 70 70 69 67 66 66 69 71 71 72 73 72 71
71 69 71 69 68 67 68 67 66 64 65 64 63 64 67 66 66 66 66 66 67 66 65 66 65 65 66 67 67 68 70 71 71
71 70 70 69 68 67 67 66 64 64 65 62 61 59 61 64 65 63 63 61 62 62 62 63 64 63 61 61 63 64 66 67 68
69 69 70 68 68 66 66 66 65 62 63 65 61 57 55 60 61 60 60 59 59 59 59 62 61 60 59 59 59 61 63 65 66
69 69 68 67 67 65 65 67 65 64 61 63 65 63 61 56 56 59 58 59 59 58 57 57 59 58 57 57 57 58 60 64 66
68 68 66 66 65 65 65 63 62 63 62 62 62 61 61 62 57 54 55 57 57 57 56 55 55 54 54 53 55 58 60 63 66

GFSFLT1_sfc_temp_123.txt.gz
Temp
79 77 76 76 76 77 77 76 76 75 76 77 77 76 74 72 68 67 71 70 77 77 77 77 77 76 76 76 76 76 76 76 75
77 76 75 75 76 77 77 76 75 75 75 76 75 75 72 69 66 66 67 71 77 77 77 76 76 76 76 76 76 76 76 75 75
76 75 75 75 76 76 76 75 75 75 75 75 74 74 72 70 66 66 67 74 77 76 76 76 76 76 76 75 76 76 75 76 74
76 75 75 75 75 75 74 75 75 75 74 74 73 72 70 67 68 70 67 74 76 76 75 75 75 75 75 75 75 74 75 74 74
74 73 74 74 74 74 74 74 74 74 73 73 72 70 69 66 67 67 69 75 76 75 75 74 74 74 74 74 74 74 74 74 74
72 70 71 73 73 73 73 73 72 71 71 71 71 68 66 66 66 66 73 75 75 74 74 74 73 73 73 73 73 73 73 73 73
71 69 70 72 72 72 73 72 71 68 65 65 68 66 65 66 65 66 73 75 75 74 73 73 73 73 72 72 72 72 72 72 72
69 68 68 67 66 67 68 67 65 64 65 65 64 66 65 64 65 68 72 74 74 74 73 72 72 72 72 72 72 72 71 71 71
67 67 66 66 65 65 63 63 64 65 67 66 66 67 66 65 65 66 70 73 74 74 73 73 72 72 72 72 71 71 71 71 70
68 66 66 65 64 64 63 63 65 66 67 68 70 69 66 65 65 64 67 71 73 74 73 73 73 72 72 71 71 71 70 70 70
69 67 67 65 65 66 65 64 66 67 68 68 69 68 67 66 65 64 65 68 71 73 74 74 73 73 72 72 71 70 70 70 70
70 69 67 68 69 67 66 66 67 66 68 67 68 68 67 67 65 65 64 66 67 70 73 74 74 73 73 73 72 71 71 70 70
71 70 69 68 71 67 66 66 65 65 66 65 66 66 67 66 66 65 65 64 66 67 70 72 73 73 74 74 73 73 71 71 70
72 72 70 69 71 66 66 64 65 63 64 66 65 65 66 67 69 66 65 64 65 64 66 66 68 70 72 74 74 73 72 71 71
73 73 70 72 67 65 65 65 63 64 65 69 67 65 65 66 65 65 68 66 66 65 65 63 64 65 69 71 71 71 72 71 71
73 72 72 70 68 66 66 65 64 62 64 63 62 63 64 64 63 63 63 63 63 63 63 63 62 63 66 68 69 69 70 71 70
74 73 71 70 66 65 64 64 62 63 64 61 59 57 60 61 62 61 61 60 61 61 61 61 62 61 59 61 63 65 67 68 68
70 70 69 69 69 66 64 64 64 61 62 63 61 55 54 57 59 59 59 59 58 57 58 59 58 58 58 59 59 60 62 65 67
68 68 68 68 66 65 65 65 64 63 62 63 63 62 59 55 54 57 57 57 58 56 56 56 57 56 55 56 57 58 60 64 66
69 69 68 66 67 65 65 63 63 62 61 61 60 59 58 59 55 52 54 56 56 56 56 55 54 54 53 53 55 58 60 63 65

GFSFLT1_sfc_temp_126.txt.gz
Temp
79 77 76 76 76 76 76 76 76 76 76 76 76 75 73 70 66 66 71 69 77 77 77 77 77 76 76 77 76 77 76 75 75
77 76 75 75 76 76 76 75 76 75 75 76 75 73 71 66 64 65 66 72 77 77 77 76 76 76 76 76 76 76 75 75 75
76 75 75 76 76 76 76 75 75 75 75 75 74 72 70 68 65 65 66 74 77 76 76 76 76 76 76 76 75 75 75 74 74
75 75 75 75 75 75 74 74 75 75 75 74 72 70 69 65 66 69 66 74 76 76 75 75 75 75 75 75 74 75 74 75 74
74 73 74 74 74 74 74 74 75 74 73 72 71 69 68 64 65 66 68 75 75 75 75 75 74 74 74 74 74 74 74 74 73
71 70 71 72 73 73 73 73 73 72 71 70 70 67 64 63 64 65 73 75 75 74 74 74 74 73 73 73 73 73 73 73 73
70 68 69 72 71 72 73 72 71 68 65 64 67 64 63 63 64 65 73 75 75 74 73 73 73 73 72 72 72 72 72 72 72
68 67 67 66 66 66 67 66 64 63 63 63 63 62 62 62 64 68 72 74 74 73 73 72 72 72 72 72 72 71 71 71 71
69 68 65 64 64 63 62 61 62 63 64 63 63 63 62 62 63 65 70 73 74 73 73 72 72 72 72 72 71 71 71 70 70
69 68 65 64 63 62 61 61 63 63 63 65 65 64 63 63 63 63 66 70 73 73 73 73 73 72 72 71 71 70 70 70 70
67 65 64 64 64 63 62 62 62 63 64 65 66 65 64 63 63 63 64 68 71 73 74 74 73 73 72 72 71 70 70 70 70
67 66 65 65 65 63 63 63 62 63 65 65 66 65 64 64 63 63 63 65 66 70 73 74 73 73 73 73 72 71 71 70 70
68 67 66 66 66 64 64 62 62 62 63 63 64 64 64 63 63 63 63 63 65 66 70 71 73 73 73 74 73 72 72 71 70
69 68 68 67 67 66 65 62 63 61 62 63 63 63 64 65 67 63 63 63 63 63 65 66 67 68 71 73 74 72 71 71 70
70 70 69 68 67 64 63 62 62 62 63 66 64 63 63 64 63 64 65 63 64 63 63 62 62 65 68 70 71 72 71 71 71
71 71 69 69 67 67 66 62 62 61 62 61 60 60 61 62 62 62 61 62 61 62 61 61 61 61 66 67 67 69 70 70 69
72 72 70 69 67 66 65 63 60 61 62 60 58 56 59 60 61 60 60 59 60 59 59 60 60 59 58 60 63 64 67 68 68
72 72 71 68 69 67 66 64 63 60 61 63 60 54 54 57 58 58 57 57 57 56 57 57 57 57 56 58 57 60 63 66 68
70 69 69 68 68 66 65 66 64 62 60 60 62 60 59 55 54 56 56 56 57 55 55 55 55 55 54 56 57 59 61 64 66
68 68 68 67 66 66 65 63 64 62 62 60 60 59 58 58 55 51 53 55 55 55 55 54 53 53 52 52 55 58 60 63 64

GFSFLT1_sfc_temp_129.txt.gz
Temp
79 77 77 76 76 76 76 76 76 76 76 76 75 74 72 69 65 65 70 74 78 77 77 76 76 76 76 76 76 76 76 76 75
77 76 75 75 76 76 76 76 76 75 76 75 74 73 70 64 63 64 66 73 78 77 77 77 76 76 76 76 76 75 75 75 75
76 75 75 75 76 76 76 76 75 75 75 75 73 71 69 66 64 65 66 75 77 77 76 76 76 76 76 75 75 75 75 75 74
75 75 75 75 75 75 75 75 75 75 75 73 72 70 68 63 64 67 66 74 76 76 76 76 75 76 74 74 75 74 74 74 74
74 73 74 75 74 74 74 74 75 74 74 72 70 69 67 63 64 65 67 75 76 75 75 75 74 75 74 74 74 74 74 73 73
70 70 71 73 73 73 73 74 73 71 70 70 69 67 62 62 63 64 73 75 75 74 74 74 74 73 73 73 73 73 72 73 73
70 68 69 71 71 72 73 73 71 67 63 64 66 62 62 62 63 64 73 75 75 74 73 73 73 72 72 72 72 72 72 72 71
68 67 67 65 65 65 67 66 63 62 62 61 61 61 61 61 63 67 72 74 74 73 73 72 72 72 72 72 71 71 71 71 70
66 65 64 63 62 62 62 60 61 62 62 61 61 61 61 61 63 65 70 73 74 73 73 72 72 72 72 71 71 71 70 70 70
68 65 64 62 62 61 60 59 61 61 61 62 62 62 61 62 63 63 66 70 72 73 73 73 72 72 72 71 71 70 70 70 70
70 67 63 62 62 61 60 60 61 61 62 62 63 62 62 62 62 62 64 68 70 72 73 73 73 73 72 72 71 71 70 70 70
70 67 63 63 62 61 60 61 61 61 62 62 63 62 61 62 62 62 62 64 66 70 73 74 73 73 73 73 72 72 71 71 70
67 65 65 64 63 62 61 60 60 60 61 61 61 61 62 61 61 62 62 63 64 65 69 71 73 73 72 73 73 72 71 71 71
68 67 66 65 64 63 63 59 60 59 60 61 61 61 61 62 64 61 61 62 63 62 64 65 66 68 71 72 72 73 72 71 70
69 67 66 65 64 62 60 60 60 61 61 64 62 60 61 61 61 61 63 62 62 62 62 61 61 64 68 70 71 71 70 71 71
69 67 66 66 65 64 63 60 61 59 60 59 59 59 60 60 60 60 60 61 60 61 61 60 60 61 64 66 68 69 70 69 69
68 68 67 66 65 62 63 61 59 60 61 59 58 56 58 58 59 59 60 59 59 58 59 59 59 58 57 59 62 65 67 68 69
68 68 69 67 67 64 64 63 63 59 59 61 60 54 54 56 57 57 57 57 57 56 56 57 56 56 55 57 58 61 63 66 68
68 68 69 68 67 65 65 66 65 62 61 59 61 60 58 55 54 56 56 56 56 55 54 54 54 54 53 56 57 59 61 64 66
66 65 65 66 66 65 64 63 63 65 62 59 59 58 57 57 54 52 53 55 55 54 54 53 52 52 52 51 55 58 61 63 64